DLH490 EDDF-KSEA

Flight info

Callsign DLH490
Flight time 9h 43m
Altitude 36000
Route OBOKA3D/07C OBOKA Z28 DIBIR DCT BUDIP DCT GODOS DCT NALAN/M079F360 DCT 64N010W 67N020W 69N030W/M079F380 71N040W 73N060W DCT MEDPA/N0458F380 DCT 72N080W 7030N09000W 6730N10000W 62N110W/N0451F400 DCT YSM DCT 55N116W DCT LONRO DCT YDC DCT JAKSN GLASR3
Aircraft A343/H-SDE2E3FGHIJ4J5M1RWXY/LB1D1

Departure

Time 2026-04-07 09:25
Airport Frankfurt Main Airport (EDDF)

Arrival

Time 2026-04-07 19:08
Airport Seattle–Tacoma International Airport (KSEA)
Time Latitude Longitude Altitude Speed Heading
2026-04-07 09:25 50.26169 8.82691 10862 ft 290 kts 352°
2026-04-07 09:25 50.28118 8.81681 11103 ft 305 kts 329°
2026-04-07 09:25 50.29688 8.79359 11352 ft 322 kts 304°
2026-04-07 09:25 50.30489 8.76010 11612 ft 341 kts 279°
2026-04-07 09:26 50.30666 8.72254 12027 ft 349 kts 282°
2026-04-07 09:26 50.31256 8.68564 12567 ft 351 kts 289°
2026-04-07 09:26 50.32018 8.64913 13127 ft 355 kts 290°
2026-04-07 09:26 50.32815 8.61243 13714 ft 358 kts 291°
2026-04-07 09:27 50.33625 8.57548 14327 ft 361 kts 291°
2026-04-07 09:27 50.34440 8.53798 14894 ft 363 kts 291°
2026-04-07 09:27 50.35255 8.50041 15460 ft 366 kts 291°
2026-04-07 09:27 50.36075 8.46258 15986 ft 368 kts 291°
2026-04-07 09:28 50.36899 8.42446 16542 ft 371 kts 291°
2026-04-07 09:28 50.37729 8.38609 17080 ft 373 kts 291°
2026-04-07 09:28 50.38721 8.34836 17632 ft 374 kts 298°
2026-04-07 09:28 50.39929 8.31213 18149 ft 377 kts 300°
2026-04-07 09:29 50.41197 8.27595 18677 ft 380 kts 301°
2026-04-07 09:29 50.42492 8.23958 19143 ft 383 kts 301°
2026-04-07 09:29 50.43799 8.20313 19597 ft 385 kts 301°
2026-04-07 09:29 50.45120 8.16639 20053 ft 387 kts 301°
2026-04-07 09:30 50.46446 8.12949 20512 ft 390 kts 301°
2026-04-07 09:30 50.47764 8.09281 20973 ft 392 kts 301°
2026-04-07 09:30 50.49104 8.05547 21419 ft 394 kts 301°
2026-04-07 09:30 50.50453 8.01785 21863 ft 396 kts 301°
2026-04-07 09:31 50.51807 7.98004 22293 ft 398 kts 301°
2026-04-07 09:31 50.53166 7.94202 22717 ft 401 kts 301°
2026-04-07 09:31 50.54537 7.90365 23112 ft 404 kts 300°
2026-04-07 09:31 50.55915 7.86498 23485 ft 407 kts 300°
2026-04-07 09:32 50.57300 7.82608 23899 ft 409 kts 300°
2026-04-07 09:32 50.58692 7.78692 24242 ft 411 kts 300°
2026-04-07 09:32 50.60088 7.74759 24563 ft 413 kts 300°
2026-04-07 09:32 50.61492 7.70798 24892 ft 415 kts 300°
2026-04-07 09:33 50.62899 7.66821 25225 ft 417 kts 300°
2026-04-07 09:33 50.64308 7.62833 25592 ft 417 kts 300°
2026-04-07 09:33 50.65721 7.58825 25909 ft 419 kts 300°
2026-04-07 09:33 50.67139 7.54799 26214 ft 421 kts 300°
2026-04-07 09:34 50.68561 7.50753 26509 ft 423 kts 300°
2026-04-07 09:34 50.69991 7.46682 26772 ft 426 kts 300°
2026-04-07 09:34 50.71427 7.42583 27031 ft 428 kts 300°
2026-04-07 09:34 50.72869 7.38461 27347 ft 430 kts 300°
2026-04-07 09:35 50.74349 7.34348 27624 ft 431 kts 302°
2026-04-07 09:35 50.75990 7.30373 27903 ft 433 kts 304°
2026-04-07 09:35 50.77702 7.26452 28186 ft 435 kts 306°
2026-04-07 09:35 50.79454 7.22547 28465 ft 436 kts 306°
2026-04-07 09:36 50.81225 7.18635 28719 ft 438 kts 306°
2026-04-07 09:36 50.82997 7.14713 28971 ft 440 kts 306°
2026-04-07 09:36 50.84775 7.10758 29246 ft 441 kts 306°
2026-04-07 09:36 50.86550 7.06787 29487 ft 443 kts 306°
2026-04-07 09:37 50.88329 7.02787 29639 ft 447 kts 305°
2026-04-07 09:37 50.90122 6.98743 29825 ft 449 kts 305°
2026-04-07 09:37 50.91916 6.94691 30093 ft 450 kts 305°
2026-04-07 09:37 50.93718 6.90612 30359 ft 452 kts 305°
2026-04-07 09:38 50.95521 6.86522 30549 ft 454 kts 305°
2026-04-07 09:38 50.97332 6.82409 30737 ft 455 kts 305°
2026-04-07 09:38 50.99146 6.78282 30902 ft 457 kts 305°
2026-04-07 09:38 51.00966 6.74138 31133 ft 458 kts 305°
2026-04-07 09:39 51.02782 6.69994 31398 ft 457 kts 305°
2026-04-07 09:39 51.04597 6.65849 31652 ft 456 kts 305°
2026-04-07 09:39 51.06407 6.61707 31864 ft 457 kts 304°
2026-04-07 09:39 51.08225 6.57543 31970 ft 459 kts 304°
2026-04-07 09:40 51.09429 6.54781 32134 ft 460 kts 304°
2026-04-07 09:40 51.11248 6.50600 32401 ft 459 kts 304°
2026-04-07 09:40 51.13060 6.46429 32652 ft 458 kts 304°
2026-04-07 09:40 51.14869 6.42255 32893 ft 458 kts 304°
2026-04-07 09:41 51.16676 6.38081 33141 ft 457 kts 304°
2026-04-07 09:41 51.19054 6.32573 33529 ft 455 kts 304°
2026-04-07 09:41 51.20263 6.29770 33681 ft 454 kts 304°
2026-04-07 09:41 51.22051 6.25619 33870 ft 454 kts 304°
2026-04-07 09:42 51.23840 6.21459 34073 ft 454 kts 304°
2026-04-07 09:42 51.25627 6.17299 34247 ft 455 kts 303°
2026-04-07 09:42 51.27416 6.13127 34404 ft 455 kts 303°
2026-04-07 09:42 51.29196 6.08941 34554 ft 455 kts 303°
2026-04-07 09:43 51.30915 6.04781 34752 ft 454 kts 302°
2026-04-07 09:43 51.32634 6.00558 34958 ft 453 kts 302°
2026-04-07 09:43 51.34341 5.96338 35126 ft 452 kts 302°
2026-04-07 09:43 51.36060 5.92135 35284 ft 452 kts 304°
2026-04-07 09:44 51.38018 5.88185 35443 ft 453 kts 311°
2026-04-07 09:44 51.40294 5.84695 35584 ft 454 kts 318°
2026-04-07 09:44 51.42720 5.81457 35732 ft 454 kts 320°
2026-04-07 09:44 51.45187 5.78319 35905 ft 453 kts 321°
2026-04-07 09:45 51.47679 5.75226 36084 ft 452 kts 321°
2026-04-07 09:45 51.50179 5.72148 36166 ft 454 kts 321°
2026-04-07 09:45 51.52682 5.69066 36276 ft 454 kts 321°
2026-04-07 09:45 51.55185 5.65971 36375 ft 455 kts 321°
2026-04-07 09:46 51.60190 5.59736 36370 ft 454 kts 320°
2026-04-07 09:46 51.65162 5.53501 36371 ft 453 kts 320°
2026-04-07 09:47 51.70128 5.47249 36373 ft 453 kts 320°
2026-04-07 09:47 51.75081 5.40998 36371 ft 452 kts 320°
2026-04-07 09:48 51.80034 5.34728 36371 ft 452 kts 320°
2026-04-07 09:48 51.84994 5.28432 36377 ft 454 kts 320°
2026-04-07 09:49 51.89931 5.22149 36377 ft 455 kts 320°
2026-04-07 09:49 51.94904 5.15802 36378 ft 455 kts 320°
2026-04-07 09:50 51.99862 5.09456 36381 ft 454 kts 320°
2026-04-07 09:50 52.04811 5.03102 36387 ft 454 kts 320°
2026-04-07 09:51 52.09756 4.96734 36393 ft 454 kts 320°
2026-04-07 09:51 52.14697 4.90354 36395 ft 454 kts 319°
2026-04-07 09:52 52.19654 4.83932 36407 ft 456 kts 319°
2026-04-07 09:52 52.24607 4.77500 36401 ft 455 kts 319°
2026-04-07 09:53 52.29558 4.71050 36400 ft 455 kts 319°
2026-04-07 09:53 52.34507 4.64583 36392 ft 455 kts 319°
2026-04-07 09:54 52.39448 4.58107 36397 ft 455 kts 319°
2026-04-07 09:54 52.44387 4.51617 36403 ft 455 kts 319°
2026-04-07 09:55 52.49316 4.45120 36400 ft 454 kts 319°
2026-04-07 09:55 52.54226 4.38627 36398 ft 453 kts 319°
2026-04-07 09:56 52.59138 4.32114 36401 ft 453 kts 319°
2026-04-07 09:56 52.64045 4.25587 36400 ft 453 kts 319°
2026-04-07 09:57 52.68946 4.19049 36400 ft 453 kts 319°
2026-04-07 09:57 52.73837 4.12505 36405 ft 452 kts 318°
2026-04-07 09:58 52.78710 4.05965 36406 ft 452 kts 318°
2026-04-07 09:58 52.83584 3.99404 36408 ft 453 kts 318°
2026-04-07 09:59 52.88484 3.92787 36409 ft 455 kts 318°
2026-04-07 09:59 52.93388 3.86148 36411 ft 455 kts 318°
2026-04-07 10:00 52.98253 3.79543 36405 ft 454 kts 318°
2026-04-07 10:00 53.03136 3.72892 36407 ft 453 kts 317°
2026-04-07 10:01 53.07982 3.66271 36406 ft 450 kts 317°
2026-04-07 10:01 53.12812 3.59650 36401 ft 450 kts 317°
2026-04-07 10:02 53.17641 3.53010 36402 ft 451 kts 317°
2026-04-07 10:02 53.22487 3.46326 36407 ft 452 kts 317°
2026-04-07 10:03 53.27692 3.40392 36404 ft 455 kts 326°
2026-04-07 10:03 53.33164 3.35066 36402 ft 455 kts 327°
2026-04-07 10:04 53.38676 3.29842 36406 ft 456 kts 327°
2026-04-07 10:04 53.44191 3.24604 36402 ft 455 kts 327°
2026-04-07 10:05 53.49693 3.19341 36402 ft 455 kts 327°
2026-04-07 10:05 53.55192 3.14052 36409 ft 455 kts 327°
2026-04-07 10:06 53.60693 3.08744 36408 ft 456 kts 327°
2026-04-07 10:06 53.66211 3.03401 36387 ft 458 kts 327°
2026-04-07 10:07 53.71744 2.98032 36399 ft 458 kts 327°
2026-04-07 10:07 53.77221 2.92703 36401 ft 457 kts 327°
2026-04-07 10:08 53.82725 2.87328 36395 ft 457 kts 326°
2026-04-07 10:08 53.88224 2.81941 36395 ft 457 kts 326°
2026-04-07 10:09 53.93719 2.76542 36405 ft 457 kts 326°
2026-04-07 10:09 53.99215 2.71126 36398 ft 456 kts 326°
2026-04-07 10:10 54.04693 2.65711 36400 ft 455 kts 326°
2026-04-07 10:10 54.10173 2.60275 36403 ft 457 kts 326°
2026-04-07 10:11 54.15675 2.54799 36406 ft 459 kts 326°
2026-04-07 10:11 54.21186 2.49302 36404 ft 459 kts 326°
2026-04-07 10:12 54.26690 2.43795 36399 ft 457 kts 326°
2026-04-07 10:12 54.32175 2.38288 36400 ft 457 kts 326°
2026-04-07 10:13 54.37659 2.32764 36394 ft 457 kts 326°
2026-04-07 10:13 54.43140 2.27226 36394 ft 457 kts 326°
2026-04-07 10:14 54.48617 2.21674 36403 ft 457 kts 326°
2026-04-07 10:14 54.54082 2.16119 36392 ft 456 kts 326°
2026-04-07 10:15 54.59544 2.10545 36393 ft 458 kts 325°
2026-04-07 10:15 54.65034 2.04926 36392 ft 459 kts 325°
2026-04-07 10:16 54.70531 1.99286 36393 ft 459 kts 325°
2026-04-07 10:16 54.76019 1.93637 36390 ft 459 kts 325°
2026-04-07 10:17 54.81493 1.87984 36387 ft 458 kts 325°
2026-04-07 10:17 54.86921 1.82359 36390 ft 457 kts 325°
2026-04-07 10:18 54.92381 1.76681 36390 ft 457 kts 325°
2026-04-07 10:18 54.97839 1.70989 36382 ft 457 kts 325°
2026-04-07 10:19 55.06016 1.62427 36390 ft 457 kts 324°
2026-04-07 10:20 55.11485 1.56674 36383 ft 460 kts 324°
2026-04-07 10:20 55.16965 1.50894 36376 ft 460 kts 324°
2026-04-07 10:21 55.22442 1.45101 36375 ft 460 kts 324°
2026-04-07 10:21 55.27914 1.39293 36370 ft 459 kts 324°
2026-04-07 10:22 55.33371 1.33481 36388 ft 458 kts 324°
2026-04-07 10:22 55.38822 1.27657 36363 ft 458 kts 324°
2026-04-07 10:23 55.44265 1.21821 36381 ft 458 kts 324°
2026-04-07 10:23 55.49708 1.15966 36382 ft 458 kts 324°
2026-04-07 10:24 55.55111 1.10136 36372 ft 458 kts 324°
2026-04-07 10:24 55.60566 1.04227 36367 ft 461 kts 324°
2026-04-07 10:25 55.66039 0.98283 36366 ft 461 kts 324°
2026-04-07 10:25 55.71508 0.92324 36364 ft 461 kts 324°
2026-04-07 10:26 55.76971 0.86351 36357 ft 461 kts 324°
2026-04-07 10:26 55.82427 0.80366 36358 ft 460 kts 324°
2026-04-07 10:27 55.87873 0.74372 36356 ft 460 kts 324°
2026-04-07 10:27 55.93313 0.68362 36356 ft 460 kts 324°
2026-04-07 10:28 55.98748 0.62340 36348 ft 460 kts 324°
2026-04-07 10:28 56.04184 0.56295 36359 ft 460 kts 324°
2026-04-07 10:29 56.09631 0.50216 36349 ft 463 kts 324°
2026-04-07 10:29 56.15100 0.44094 36344 ft 464 kts 324°
2026-04-07 10:30 56.19647 0.38989 36343 ft 464 kts 324°
2026-04-07 10:30 56.25113 0.32834 36340 ft 464 kts 323°
2026-04-07 10:31 56.30575 0.26661 36350 ft 464 kts 323°
2026-04-07 10:31 56.36025 0.20480 36330 ft 462 kts 323°
2026-04-07 10:32 56.41459 0.14296 36330 ft 462 kts 323°
2026-04-07 10:32 56.46888 0.08096 36330 ft 462 kts 323°
2026-04-07 10:33 56.52316 0.01875 36330 ft 462 kts 323°
2026-04-07 10:33 56.57746 -0.04366 36334 ft 464 kts 323°
2026-04-07 10:34 56.63217 -0.10683 36320 ft 468 kts 323°
2026-04-07 10:34 56.68710 -0.17042 36317 ft 468 kts 323°
2026-04-07 10:35 56.74197 -0.23416 36316 ft 468 kts 323°
2026-04-07 10:35 56.79679 -0.29807 36316 ft 468 kts 322°
2026-04-07 10:36 56.85123 -0.36177 36324 ft 468 kts 322°
2026-04-07 10:36 56.90598 -0.42605 36317 ft 468 kts 322°
2026-04-07 10:37 56.96066 -0.49049 36307 ft 467 kts 322°
2026-04-07 10:37 57.01528 -0.55508 36307 ft 467 kts 322°
2026-04-07 10:38 57.06991 -0.61991 36305 ft 467 kts 322°
2026-04-07 10:38 57.12447 -0.68489 36317 ft 467 kts 322°
2026-04-07 10:39 57.17893 -0.74997 36291 ft 466 kts 322°
2026-04-07 10:39 57.23334 -0.81524 36291 ft 466 kts 322°
2026-04-07 10:40 57.28767 -0.88064 36294 ft 466 kts 322°
2026-04-07 10:40 57.34196 -0.94624 36291 ft 466 kts 322°
2026-04-07 10:41 57.39620 -1.01200 36293 ft 466 kts 321°
2026-04-07 10:41 57.45038 -1.07793 36283 ft 465 kts 321°
2026-04-07 10:42 57.50448 -1.14400 36282 ft 465 kts 321°
2026-04-07 10:42 57.55853 -1.21024 36280 ft 465 kts 321°
2026-04-07 10:43 57.61279 -1.27700 36264 ft 468 kts 321°
2026-04-07 10:43 57.66710 -1.34405 36275 ft 468 kts 321°
2026-04-07 10:44 57.72135 -1.41125 36265 ft 468 kts 321°
2026-04-07 10:44 57.77559 -1.47869 36257 ft 468 kts 321°
2026-04-07 10:45 57.82975 -1.54630 36251 ft 468 kts 321°
2026-04-07 10:45 57.88390 -1.61414 36254 ft 468 kts 321°
2026-04-07 10:46 57.93802 -1.68219 36252 ft 467 kts 321°
2026-04-07 10:46 57.99200 -1.75030 36235 ft 467 kts 321°
2026-04-07 10:47 58.04556 -1.81814 36235 ft 467 kts 321°
2026-04-07 10:47 58.09950 -1.88673 36237 ft 469 kts 321°
2026-04-07 10:48 58.15367 -1.95589 36235 ft 470 kts 321°
2026-04-07 10:48 58.20786 -2.02527 36222 ft 470 kts 320°
2026-04-07 10:49 58.26192 -2.09475 36219 ft 469 kts 320°
2026-04-07 10:49 58.31589 -2.16440 36219 ft 469 kts 320°
2026-04-07 10:50 58.36984 -2.23429 36205 ft 469 kts 320°
2026-04-07 10:50 58.42373 -2.30435 36205 ft 469 kts 320°
2026-04-07 10:51 58.47758 -2.37463 36211 ft 469 kts 320°
2026-04-07 10:51 58.53143 -2.44518 36206 ft 469 kts 320°
2026-04-07 10:52 58.58523 -2.51594 36208 ft 469 kts 320°
2026-04-07 10:52 58.63913 -2.58711 36188 ft 471 kts 320°
2026-04-07 10:53 58.69308 -2.65860 36204 ft 471 kts 320°
2026-04-07 10:53 58.74701 -2.73032 36187 ft 471 kts 320°
2026-04-07 10:54 58.80089 -2.80225 36193 ft 471 kts 320°
2026-04-07 10:54 58.85468 -2.87436 36176 ft 471 kts 319°
2026-04-07 10:55 58.90845 -2.94671 36179 ft 471 kts 319°
2026-04-07 10:55 58.96219 -3.01932 36178 ft 471 kts 319°
2026-04-07 10:56 59.01582 -3.09204 36186 ft 471 kts 319°
2026-04-07 10:56 59.06949 -3.16510 36173 ft 471 kts 319°
2026-04-07 10:57 59.12313 -3.23843 36169 ft 472 kts 319°
2026-04-07 10:57 59.17688 -3.31220 36164 ft 473 kts 319°
2026-04-07 10:58 59.23028 -3.38573 36148 ft 473 kts 319°
2026-04-07 10:58 59.28397 -3.45995 36168 ft 473 kts 319°
2026-04-07 10:59 59.33765 -3.53447 36148 ft 473 kts 319°
2026-04-07 10:59 59.39127 -3.60921 36148 ft 473 kts 319°
2026-04-07 11:00 59.44482 -3.68415 36135 ft 473 kts 319°
2026-04-07 11:00 59.49832 -3.75930 36138 ft 472 kts 318°
2026-04-07 11:01 59.55177 -3.83470 36153 ft 473 kts 318°
2026-04-07 11:01 59.60517 -3.91031 36139 ft 472 kts 318°
2026-04-07 11:02 59.65859 -3.98628 36125 ft 474 kts 318°
2026-04-07 11:02 59.71212 -4.06271 36124 ft 474 kts 318°
2026-04-07 11:03 59.76558 -4.13931 36124 ft 474 kts 318°
2026-04-07 11:03 59.81900 -4.21617 36128 ft 474 kts 318°
2026-04-07 11:04 59.87233 -4.29322 36114 ft 473 kts 317°
2026-04-07 11:04 59.92554 -4.37042 36110 ft 473 kts 317°
2026-04-07 11:05 59.97870 -4.44786 36109 ft 473 kts 317°
2026-04-07 11:05 60.03145 -4.52501 36102 ft 473 kts 317°
2026-04-07 11:06 60.08448 -4.60290 36103 ft 473 kts 317°
2026-04-07 11:06 60.13744 -4.68097 36118 ft 473 kts 317°
2026-04-07 11:07 60.19033 -4.75928 36100 ft 472 kts 317°
2026-04-07 11:07 60.24312 -4.83776 36089 ft 472 kts 317°
2026-04-07 11:08 60.29589 -4.91655 36088 ft 472 kts 317°
2026-04-07 11:08 60.34858 -4.99553 36088 ft 472 kts 317°
2026-04-07 11:09 60.40123 -5.07478 36087 ft 472 kts 317°
2026-04-07 11:09 60.45387 -5.15434 36076 ft 472 kts 316°
2026-04-07 11:10 60.50646 -5.23414 36076 ft 472 kts 316°
2026-04-07 11:10 60.55899 -5.31419 36083 ft 472 kts 316°
2026-04-07 11:11 60.61146 -5.39448 36086 ft 472 kts 316°
2026-04-07 11:11 60.66392 -5.47510 36070 ft 472 kts 316°
2026-04-07 11:12 60.71637 -5.55606 36064 ft 473 kts 316°
2026-04-07 11:12 60.76882 -5.63733 36064 ft 473 kts 316°
2026-04-07 11:13 60.82122 -5.71885 36064 ft 473 kts 316°
2026-04-07 11:13 60.87357 -5.80066 36053 ft 473 kts 316°
2026-04-07 11:14 60.92584 -5.88269 36067 ft 473 kts 315°
2026-04-07 11:14 60.97807 -5.96500 36050 ft 473 kts 315°
2026-04-07 11:15 61.03375 -6.03957 36051 ft 480 kts 322°
2026-04-07 11:15 61.09143 -6.10918 36040 ft 481 kts 323°
2026-04-07 11:16 61.14945 -6.17811 36038 ft 481 kts 323°
2026-04-07 11:16 61.19767 -6.23563 36059 ft 481 kts 323°
2026-04-07 11:17 61.25567 -6.30533 36041 ft 484 kts 322°
2026-04-07 11:17 61.31409 -6.37603 36038 ft 487 kts 322°
2026-04-07 11:18 61.37262 -6.44711 36036 ft 487 kts 322°
2026-04-07 11:18 61.43113 -6.51845 36026 ft 487 kts 322°
2026-04-07 11:19 61.48958 -6.59005 36026 ft 487 kts 322°
2026-04-07 11:19 61.54797 -6.66190 36025 ft 487 kts 322°
2026-04-07 11:20 61.60595 -6.73357 36027 ft 487 kts 322°
2026-04-07 11:20 61.66425 -6.80594 36025 ft 487 kts 322°
2026-04-07 11:21 61.72251 -6.87860 36017 ft 486 kts 322°
2026-04-07 11:21 61.78074 -6.95153 36022 ft 487 kts 321°
2026-04-07 11:22 61.83900 -7.02485 36015 ft 488 kts 321°
2026-04-07 11:22 61.89727 -7.09849 36017 ft 488 kts 321°
2026-04-07 11:23 61.95550 -7.17239 36020 ft 488 kts 321°
2026-04-07 11:23 62.01371 -7.24664 36025 ft 489 kts 321°
2026-04-07 11:24 62.07221 -7.32162 36022 ft 492 kts 321°
2026-04-07 11:24 62.13092 -7.39721 36032 ft 493 kts 320°
2026-04-07 11:25 62.21880 -7.51096 35987 ft 492 kts 320°
2026-04-07 11:25 62.27742 -7.58718 35986 ft 492 kts 320°
2026-04-07 11:26 62.33594 -7.66366 35983 ft 492 kts 320°
2026-04-07 11:26 62.39449 -7.74059 35979 ft 493 kts 320°
2026-04-07 11:27 62.45302 -7.81785 35974 ft 493 kts 320°
2026-04-07 11:27 62.51149 -7.89537 35976 ft 493 kts 320°
2026-04-07 11:28 62.56993 -7.97321 35967 ft 493 kts 320°
2026-04-07 11:28 62.62830 -8.05133 35948 ft 493 kts 320°
2026-04-07 11:29 62.68673 -8.12992 35942 ft 494 kts 320°
2026-04-07 11:29 62.74517 -8.20887 35941 ft 494 kts 320°
2026-04-07 11:30 62.80353 -8.28807 35941 ft 494 kts 320°
2026-04-07 11:30 62.86185 -8.36761 35941 ft 494 kts 320°
2026-04-07 11:31 62.92018 -8.44755 35919 ft 495 kts 320°
2026-04-07 11:31 62.97854 -8.52792 35919 ft 496 kts 320°
2026-04-07 11:32 63.03654 -8.60815 35924 ft 496 kts 319°
2026-04-07 11:32 63.09527 -8.68978 35919 ft 495 kts 319°
2026-04-07 11:33 63.15315 -8.77063 35927 ft 495 kts 319°
2026-04-07 11:33 63.21142 -8.85242 35906 ft 496 kts 319°
2026-04-07 11:34 63.26975 -8.93469 35903 ft 497 kts 319°
2026-04-07 11:34 63.32801 -9.01726 35903 ft 497 kts 319°
2026-04-07 11:35 63.38628 -9.10022 35904 ft 497 kts 319°
2026-04-07 11:35 63.44443 -9.18343 35904 ft 497 kts 319°
2026-04-07 11:36 63.50262 -9.26714 35893 ft 499 kts 318°
2026-04-07 11:36 63.56108 -9.35167 35896 ft 501 kts 318°
2026-04-07 11:37 63.61959 -9.43662 35890 ft 501 kts 318°
2026-04-07 11:37 63.67805 -9.52192 35887 ft 501 kts 318°
2026-04-07 11:38 63.73643 -9.60756 35919 ft 501 kts 318°
2026-04-07 11:38 63.79478 -9.69359 35879 ft 501 kts 318°
2026-04-07 11:39 63.85311 -9.78002 35878 ft 501 kts 318°
2026-04-07 11:39 63.91139 -9.86681 35876 ft 501 kts 318°
2026-04-07 11:40 63.96956 -9.95391 35875 ft 500 kts 317°
2026-04-07 11:40 63.99675 -10.00181 35875 ft 488 kts 307°
2026-04-07 11:40 64.02025 -10.05638 35900 ft 480 kts 302°
2026-04-07 11:41 64.06425 -10.17052 35866 ft 478 kts 300°
2026-04-07 11:41 64.10692 -10.28685 35915 ft 477 kts 300°
2026-04-07 11:42 64.14951 -10.40400 35850 ft 479 kts 300°
2026-04-07 11:42 64.19219 -10.52138 35840 ft 479 kts 300°
2026-04-07 11:43 64.23489 -10.63901 35832 ft 479 kts 300°
2026-04-07 11:43 64.27722 -10.75617 35831 ft 479 kts 299°
2026-04-07 11:44 64.31968 -10.87435 35818 ft 479 kts 299°
2026-04-07 11:44 64.36206 -10.99299 35812 ft 479 kts 299°
2026-04-07 11:45 64.40432 -11.11192 35812 ft 479 kts 299°
2026-04-07 11:45 64.44648 -11.23120 35812 ft 479 kts 299°
2026-04-07 11:46 64.48854 -11.35087 35808 ft 480 kts 299°
2026-04-07 11:46 64.53064 -11.47132 35822 ft 481 kts 299°
2026-04-07 11:47 64.57273 -11.59235 35793 ft 482 kts 299°
2026-04-07 11:47 64.61480 -11.71396 35779 ft 482 kts 299°
2026-04-07 11:48 64.65679 -11.83599 35771 ft 482 kts 299°
2026-04-07 11:48 64.69864 -11.95829 35771 ft 482 kts 298°
2026-04-07 11:49 64.74033 -12.08082 35755 ft 482 kts 298°
2026-04-07 11:49 64.78194 -12.20381 35746 ft 481 kts 298°
2026-04-07 11:50 64.82347 -12.32728 35754 ft 483 kts 299°
2026-04-07 11:50 64.86486 -12.45108 35739 ft 486 kts 299°
2026-04-07 11:51 64.90655 -12.57633 35726 ft 486 kts 299°
2026-04-07 11:51 64.94842 -12.70279 35718 ft 486 kts 299°
2026-04-07 11:52 64.98960 -12.82793 35720 ft 486 kts 298°
2026-04-07 11:52 65.03091 -12.95420 35704 ft 485 kts 298°
2026-04-07 11:53 65.07211 -13.08085 35697 ft 484 kts 299°
2026-04-07 11:53 65.11293 -13.20695 35692 ft 481 kts 299°
2026-04-07 11:54 65.15346 -13.33300 35710 ft 480 kts 300°
2026-04-07 11:54 65.19379 -13.45912 35671 ft 477 kts 300°
2026-04-07 11:55 65.23380 -13.58492 35672 ft 476 kts 300°
2026-04-07 11:55 65.27365 -13.71103 35657 ft 475 kts 299°
2026-04-07 11:56 65.31338 -13.83743 35648 ft 476 kts 299°
2026-04-07 11:56 65.35319 -13.96489 35621 ft 479 kts 299°
2026-04-07 11:57 65.39303 -14.09300 35622 ft 479 kts 299°
2026-04-07 11:57 65.43273 -14.22141 35604 ft 479 kts 299°
2026-04-07 11:58 65.47237 -14.35038 35577 ft 479 kts 299°
2026-04-07 11:58 65.51165 -14.47897 35555 ft 481 kts 299°
2026-04-07 11:59 65.55135 -14.60978 35556 ft 484 kts 300°
2026-04-07 11:59 65.59113 -14.74152 35508 ft 487 kts 299°
2026-04-07 12:00 65.63101 -14.87434 35563 ft 488 kts 299°
2026-04-07 12:00 65.67076 -15.00747 35554 ft 488 kts 299°
2026-04-07 12:01 65.71036 -15.14099 35536 ft 487 kts 299°
2026-04-07 12:01 65.74985 -15.27496 35526 ft 487 kts 299°
2026-04-07 12:02 65.78920 -15.40924 35526 ft 487 kts 298°
2026-04-07 12:02 65.82845 -15.54399 35515 ft 487 kts 299°
2026-04-07 12:03 65.86761 -15.67931 35495 ft 488 kts 299°
2026-04-07 12:03 65.90665 -15.81501 35495 ft 488 kts 299°
2026-04-07 12:04 65.94532 -15.95023 35485 ft 488 kts 299°
2026-04-07 12:04 65.98411 -16.08670 35461 ft 488 kts 299°
2026-04-07 12:05 66.02277 -16.22355 35461 ft 488 kts 298°
2026-04-07 12:05 66.06133 -16.36087 35457 ft 488 kts 298°
2026-04-07 12:06 66.09986 -16.49900 35438 ft 489 kts 297°
2026-04-07 12:06 66.13182 -16.61423 35438 ft 489 kts 297°
2026-04-07 12:07 66.17015 -16.75316 35428 ft 489 kts 298°
2026-04-07 12:07 66.20833 -16.89246 35415 ft 489 kts 298°
2026-04-07 12:08 66.24635 -17.03205 35408 ft 489 kts 298°
2026-04-07 12:08 66.28424 -17.17206 35424 ft 488 kts 298°
2026-04-07 12:09 66.32177 -17.31151 35412 ft 483 kts 298°
2026-04-07 12:09 66.35896 -17.45065 35387 ft 482 kts 298°
2026-04-07 12:10 66.39598 -17.59010 35390 ft 482 kts 297°
2026-04-07 12:10 66.43288 -17.72997 35386 ft 482 kts 297°
2026-04-07 12:11 66.46963 -17.87013 35358 ft 482 kts 298°
2026-04-07 12:11 66.50623 -18.01059 35358 ft 481 kts 298°
2026-04-07 12:12 66.54272 -18.15154 35365 ft 482 kts 298°
2026-04-07 12:12 66.57911 -18.29304 35360 ft 482 kts 297°
2026-04-07 12:13 66.61539 -18.43497 35362 ft 482 kts 297°
2026-04-07 12:13 66.65154 -18.57731 35366 ft 482 kts 297°
2026-04-07 12:14 66.68755 -18.72001 35368 ft 482 kts 297°
2026-04-07 12:14 66.72342 -18.86312 35364 ft 482 kts 297°
2026-04-07 12:15 66.75914 -19.00658 35364 ft 482 kts 297°
2026-04-07 12:15 66.79475 -19.15050 35368 ft 482 kts 297°
2026-04-07 12:16 66.83020 -19.29475 35357 ft 482 kts 297°
2026-04-07 12:16 66.86552 -19.43939 35357 ft 482 kts 296°
2026-04-07 12:17 66.90048 -19.58352 35354 ft 481 kts 296°
2026-04-07 12:17 66.93550 -19.72887 35354 ft 481 kts 296°
2026-04-07 12:18 66.97039 -19.87467 35352 ft 481 kts 296°
2026-04-07 12:18 67.00517 -20.02093 35341 ft 482 kts 297°
2026-04-07 12:19 67.04093 -20.16620 35342 ft 483 kts 298°
2026-04-07 12:19 67.07725 -20.31095 35346 ft 483 kts 298°
2026-04-07 12:20 67.11328 -20.45610 35329 ft 482 kts 298°
2026-04-07 12:20 67.14898 -20.60173 35311 ft 481 kts 298°
2026-04-07 12:21 67.18449 -20.74792 35329 ft 481 kts 297°
2026-04-07 12:21 67.21986 -20.89462 35307 ft 483 kts 298°
2026-04-07 12:22 67.25520 -21.04207 35309 ft 483 kts 298°
2026-04-07 12:22 67.29041 -21.18991 35309 ft 483 kts 297°
2026-04-07 12:23 67.32551 -21.33831 35297 ft 483 kts 297°
2026-04-07 12:23 67.36042 -21.48693 35297 ft 483 kts 297°
2026-04-07 12:24 67.39520 -21.63602 35315 ft 483 kts 297°
2026-04-07 12:24 67.42979 -21.78525 35298 ft 481 kts 297°
2026-04-07 12:25 67.46415 -21.93468 35281 ft 481 kts 297°
2026-04-07 12:25 67.49836 -22.08443 35286 ft 481 kts 297°
2026-04-07 12:26 67.53246 -22.23467 35288 ft 480 kts 297°
2026-04-07 12:26 67.56638 -22.38521 35288 ft 480 kts 296°
2026-04-07 12:27 67.59996 -22.53528 35284 ft 480 kts 297°
2026-04-07 12:27 67.63363 -22.68677 35292 ft 480 kts 297°
2026-04-07 12:28 67.66719 -22.83890 35303 ft 482 kts 296°
2026-04-07 12:29 67.71730 -23.06803 35293 ft 481 kts 296°
2026-04-07 12:29 67.75044 -23.22084 35317 ft 480 kts 296°
2026-04-07 12:30 67.78338 -23.37392 35317 ft 479 kts 296°
2026-04-07 12:30 67.81621 -23.52759 35312 ft 480 kts 296°
2026-04-07 12:31 67.84873 -23.68172 35343 ft 480 kts 295°
2026-04-07 12:31 67.88163 -23.83640 35343 ft 484 kts 294°
2026-04-07 12:32 67.91454 -23.99293 35343 ft 487 kts 293°
2026-04-07 12:32 67.94710 -24.15081 35364 ft 487 kts 293°
2026-04-07 12:33 67.97956 -24.30898 35364 ft 487 kts 293°
2026-04-07 12:33 68.01193 -24.46741 35387 ft 486 kts 293°
2026-04-07 12:34 68.04415 -24.62614 35397 ft 486 kts 292°
2026-04-07 12:34 68.07627 -24.78569 35381 ft 489 kts 292°
2026-04-07 12:35 68.10836 -24.94621 35407 ft 489 kts 293°
2026-04-07 12:35 68.14027 -25.10703 35404 ft 488 kts 292°
2026-04-07 12:36 68.17171 -25.26853 35419 ft 487 kts 292°
2026-04-07 12:36 68.20244 -25.42944 35420 ft 488 kts 293°
2026-04-07 12:37 68.23367 -25.59116 35416 ft 484 kts 292°
2026-04-07 12:37 68.26368 -25.75110 35438 ft 478 kts 291°
2026-04-07 12:38 68.29407 -25.91233 35426 ft 483 kts 292°
2026-04-07 12:38 68.32456 -26.07318 35439 ft 479 kts 293°
2026-04-07 12:39 68.35532 -26.23303 35439 ft 478 kts 295°
2026-04-07 12:39 68.38608 -26.39239 35422 ft 477 kts 294°
2026-04-07 12:40 68.41622 -26.55275 35436 ft 477 kts 294°
2026-04-07 12:40 68.44586 -26.71385 35441 ft 477 kts 294°
2026-04-07 12:41 68.47528 -26.87558 35448 ft 477 kts 293°
2026-04-07 12:41 68.50458 -27.03791 35435 ft 477 kts 293°
2026-04-07 12:42 68.53369 -27.20045 35441 ft 477 kts 291°
2026-04-07 12:42 68.56244 -27.36421 35466 ft 480 kts 292°
2026-04-07 12:43 68.59160 -27.52851 35461 ft 480 kts 292°
2026-04-07 12:43 68.62061 -27.69333 35506 ft 480 kts 292°
2026-04-07 12:44 68.64942 -27.85891 35501 ft 481 kts 291°
2026-04-07 12:44 68.67799 -28.02504 35496 ft 481 kts 291°
2026-04-07 12:45 68.70643 -28.19165 35541 ft 481 kts 291°
2026-04-07 12:45 68.73467 -28.35852 35541 ft 481 kts 291°
2026-04-07 12:46 68.76275 -28.52578 35540 ft 481 kts 291°
2026-04-07 12:46 68.79054 -28.69327 35610 ft 479 kts 292°
2026-04-07 12:47 68.81820 -28.86082 35598 ft 480 kts 291°
2026-04-07 12:47 68.84560 -29.02849 35652 ft 481 kts 291°
2026-04-07 12:48 68.87292 -29.19719 35648 ft 479 kts 291°
2026-04-07 12:48 68.90015 -29.36565 35648 ft 478 kts 291°
2026-04-07 12:49 68.92724 -29.53509 35584 ft 481 kts 291°
2026-04-07 12:49 68.95423 -29.70567 35585 ft 482 kts 290°
2026-04-07 12:50 68.98083 -29.87639 35643 ft 479 kts 291°
2026-04-07 12:50 69.01146 -30.04116 35844 ft 482 kts 301°
2026-04-07 12:51 69.04893 -30.19736 35988 ft 487 kts 302°
2026-04-07 12:51 69.06808 -30.27482 36336 ft 484 kts 302°
2026-04-07 12:51 69.08735 -30.35231 36423 ft 485 kts 301°
2026-04-07 12:52 69.12595 -30.50831 36757 ft 485 kts 302°
2026-04-07 12:52 69.14489 -30.58563 37209 ft 479 kts 301°
2026-04-07 12:52 69.16373 -30.66286 37307 ft 480 kts 301°
2026-04-07 12:53 69.19497 -30.79207 37571 ft 479 kts 302°
2026-04-07 12:53 69.21367 -30.86961 37726 ft 479 kts 301°
2026-04-07 12:53 69.23240 -30.94756 37813 ft 481 kts 301°
2026-04-07 12:54 69.26997 -31.10475 37836 ft 484 kts 302°
2026-04-07 12:54 69.30743 -31.26247 37836 ft 483 kts 301°
2026-04-07 12:55 69.34466 -31.42056 37856 ft 483 kts 301°
2026-04-07 12:55 69.38166 -31.57906 37857 ft 482 kts 301°
2026-04-07 12:56 69.41877 -31.73918 37828 ft 481 kts 301°
2026-04-07 12:56 69.45517 -31.89687 37821 ft 480 kts 300°
2026-04-07 12:57 69.49170 -32.05669 37830 ft 481 kts 301°
2026-04-07 12:57 69.52812 -32.21725 37830 ft 483 kts 299°
2026-04-07 12:58 69.56449 -32.37876 37832 ft 483 kts 300°
2026-04-07 12:58 69.60066 -32.54040 37847 ft 481 kts 299°
2026-04-07 12:59 69.63665 -32.70241 37818 ft 480 kts 299°
2026-04-07 12:59 69.67238 -32.86470 37835 ft 480 kts 300°
2026-04-07 13:00 69.70791 -33.02727 37854 ft 481 kts 299°
2026-04-07 13:00 69.74331 -33.19068 37843 ft 480 kts 299°
2026-04-07 13:01 69.77864 -33.35471 37844 ft 482 kts 297°
2026-04-07 13:01 69.81382 -33.51956 37874 ft 481 kts 299°
2026-04-07 13:02 69.84877 -33.68447 37862 ft 480 kts 298°
2026-04-07 13:02 69.88356 -33.85001 37861 ft 479 kts 299°
2026-04-07 13:03 69.91813 -34.01541 37877 ft 479 kts 298°
2026-04-07 13:03 69.95258 -34.18165 37878 ft 480 kts 297°
2026-04-07 13:04 69.98685 -34.34880 37879 ft 479 kts 297°
2026-04-07 13:04 70.02106 -34.51639 37886 ft 481 kts 297°
2026-04-07 13:05 70.05489 -34.68358 37892 ft 481 kts 297°
2026-04-07 13:05 70.08870 -34.85234 37887 ft 479 kts 297°
2026-04-07 13:06 70.12241 -35.02138 37890 ft 480 kts 297°
2026-04-07 13:06 70.15588 -35.19106 37894 ft 479 kts 298°
2026-04-07 13:07 70.18911 -35.36071 37886 ft 478 kts 297°
2026-04-07 13:07 70.22228 -35.53104 37898 ft 479 kts 297°
2026-04-07 13:08 70.25522 -35.70205 37896 ft 478 kts 297°
2026-04-07 13:08 70.28797 -35.87341 37903 ft 479 kts 296°
2026-04-07 13:09 70.32064 -36.04575 37903 ft 480 kts 296°
2026-04-07 13:09 70.35317 -36.21874 37888 ft 479 kts 296°
2026-04-07 13:10 70.38543 -36.39178 37892 ft 478 kts 296°
2026-04-07 13:10 70.41750 -36.56514 37892 ft 478 kts 296°
2026-04-07 13:11 70.44938 -36.73884 37894 ft 477 kts 296°
2026-04-07 13:11 70.48107 -36.91302 37898 ft 477 kts 296°
2026-04-07 13:12 70.51257 -37.08768 37893 ft 477 kts 296°
2026-04-07 13:12 70.54393 -37.26280 37881 ft 477 kts 295°
2026-04-07 13:13 70.57509 -37.43860 37884 ft 477 kts 295°
2026-04-07 13:13 70.60606 -37.61464 37881 ft 476 kts 294°
2026-04-07 13:14 70.63687 -37.79126 37881 ft 477 kts 294°
2026-04-07 13:14 70.66753 -37.96870 37881 ft 477 kts 294°
2026-04-07 13:15 70.69801 -38.14667 37876 ft 477 kts 294°
2026-04-07 13:15 70.72810 -38.32391 37874 ft 476 kts 294°
2026-04-07 13:16 70.75817 -38.50246 37873 ft 476 kts 293°
2026-04-07 13:16 70.78813 -38.68148 37875 ft 476 kts 293°
2026-04-07 13:17 70.81790 -38.86129 37878 ft 476 kts 293°
2026-04-07 13:17 70.84742 -39.04168 37869 ft 476 kts 294°
2026-04-07 13:18 70.87674 -39.22217 37871 ft 475 kts 294°
2026-04-07 13:18 70.90588 -39.40298 37867 ft 475 kts 294°
2026-04-07 13:19 70.93486 -39.58450 37869 ft 475 kts 293°
2026-04-07 13:19 70.96347 -39.76533 37873 ft 476 kts 293°
2026-04-07 13:20 70.99211 -39.94797 37871 ft 475 kts 292°
2026-04-07 13:20 71.02119 -40.13057 37872 ft 477 kts 294°
2026-04-07 13:21 71.05152 -40.31162 37869 ft 476 kts 294°
2026-04-07 13:21 71.08178 -40.49274 37872 ft 476 kts 293°
2026-04-07 13:22 71.11171 -40.67508 37876 ft 476 kts 294°
2026-04-07 13:22 71.14130 -40.85791 37873 ft 476 kts 293°
2026-04-07 13:23 71.17066 -41.04122 37870 ft 476 kts 292°
2026-04-07 13:23 71.19984 -41.22521 37874 ft 476 kts 293°
2026-04-07 13:24 71.22881 -41.40951 37878 ft 475 kts 293°
2026-04-07 13:24 71.25762 -41.59396 37873 ft 475 kts 292°
2026-04-07 13:25 71.28624 -41.77941 37877 ft 475 kts 292°
2026-04-07 13:25 71.31463 -41.96519 37875 ft 474 kts 292°
2026-04-07 13:26 71.34287 -42.15131 37875 ft 475 kts 292°
2026-04-07 13:26 71.37091 -42.33812 37867 ft 474 kts 292°
2026-04-07 13:27 71.39872 -42.52519 37867 ft 474 kts 292°
2026-04-07 13:27 71.42634 -42.71269 37874 ft 474 kts 292°
2026-04-07 13:28 71.45379 -42.90083 37873 ft 473 kts 291°
2026-04-07 13:28 71.48102 -43.08927 37873 ft 473 kts 291°
2026-04-07 13:29 71.50805 -43.27817 37873 ft 474 kts 291°
2026-04-07 13:29 71.53472 -43.46642 37862 ft 473 kts 291°
2026-04-07 13:30 71.56137 -43.65634 37862 ft 473 kts 290°
2026-04-07 13:30 71.58785 -43.84685 37862 ft 473 kts 290°
2026-04-07 13:31 71.61410 -44.03777 37861 ft 473 kts 290°
2026-04-07 13:31 71.64011 -44.22895 37862 ft 472 kts 290°
2026-04-07 13:32 71.66597 -44.42073 37859 ft 472 kts 290°
2026-04-07 13:32 71.69164 -44.61290 37850 ft 472 kts 290°
2026-04-07 13:33 71.71710 -44.80545 37845 ft 472 kts 289°
2026-04-07 13:33 71.75489 -45.09541 37858 ft 472 kts 289°
2026-04-07 13:34 71.77978 -45.28878 37854 ft 470 kts 289°
2026-04-07 13:34 71.80445 -45.48254 37851 ft 470 kts 288°
2026-04-07 13:35 71.82892 -45.67679 37823 ft 470 kts 288°
2026-04-07 13:35 71.85317 -45.87134 37844 ft 470 kts 288°
2026-04-07 13:36 71.87725 -46.06653 37836 ft 470 kts 288°
2026-04-07 13:36 71.90112 -46.26200 37832 ft 470 kts 288°
2026-04-07 13:37 71.92476 -46.45784 37832 ft 469 kts 287°
2026-04-07 13:37 71.94819 -46.65406 37828 ft 469 kts 287°
2026-04-07 13:38 71.97144 -46.85083 37819 ft 469 kts 287°
2026-04-07 13:38 71.99446 -47.04794 37818 ft 469 kts 287°
2026-04-07 13:39 72.01713 -47.24421 37812 ft 469 kts 287°
2026-04-07 13:39 72.03975 -47.44220 37814 ft 468 kts 287°
2026-04-07 13:40 72.06212 -47.64022 37810 ft 467 kts 286°
2026-04-07 13:40 72.08426 -47.83853 37813 ft 467 kts 286°
2026-04-07 13:41 72.10619 -48.03724 37811 ft 467 kts 285°
2026-04-07 13:41 72.12427 -48.20285 37802 ft 468 kts 285°
2026-04-07 13:42 72.14586 -48.40262 37798 ft 468 kts 285°
2026-04-07 13:42 72.16724 -48.60285 37809 ft 467 kts 285°
2026-04-07 13:43 72.18841 -48.80345 37794 ft 467 kts 285°
2026-04-07 13:43 72.20936 -49.00441 37800 ft 467 kts 285°
2026-04-07 13:44 72.23010 -49.20577 37802 ft 467 kts 284°
2026-04-07 13:44 72.25063 -49.40752 37790 ft 467 kts 284°
2026-04-07 13:45 72.27094 -49.60965 37777 ft 467 kts 284°
2026-04-07 13:45 72.29105 -49.81222 37777 ft 467 kts 284°
2026-04-07 13:46 72.31093 -50.01513 37761 ft 467 kts 284°
2026-04-07 13:46 72.33062 -50.21854 37763 ft 466 kts 284°
2026-04-07 13:47 72.35008 -50.42225 37768 ft 466 kts 283°
2026-04-07 13:47 72.36933 -50.62633 37777 ft 466 kts 283°
2026-04-07 13:48 72.38837 -50.83088 37772 ft 466 kts 283°
2026-04-07 13:48 72.40719 -51.03583 37758 ft 466 kts 282°
2026-04-07 13:49 72.42581 -51.24124 37755 ft 467 kts 282°
2026-04-07 13:49 72.44424 -51.44739 37764 ft 467 kts 282°
2026-04-07 13:50 72.46246 -51.65391 37761 ft 467 kts 282°
2026-04-07 13:50 72.48046 -51.86080 37771 ft 467 kts 282°
2026-04-07 13:51 72.49812 -52.06659 37763 ft 467 kts 281°
2026-04-07 13:51 72.51570 -52.27442 37767 ft 467 kts 281°
2026-04-07 13:52 72.53306 -52.48272 37748 ft 467 kts 281°
2026-04-07 13:52 72.55021 -52.69128 37749 ft 467 kts 281°
2026-04-07 13:53 72.56713 -52.90025 37746 ft 467 kts 281°
2026-04-07 13:53 72.58383 -53.10949 37716 ft 467 kts 281°
2026-04-07 13:54 72.60031 -53.31908 37720 ft 467 kts 280°
2026-04-07 13:54 72.61656 -53.52904 37750 ft 467 kts 280°
2026-04-07 13:55 72.63261 -53.73970 37750 ft 467 kts 280°
2026-04-07 13:55 72.64843 -53.95042 37772 ft 467 kts 279°
2026-04-07 13:56 72.66407 -54.16207 37774 ft 467 kts 279°
2026-04-07 13:56 72.67936 -54.37251 37781 ft 467 kts 279°
2026-04-07 13:57 72.69455 -54.58475 37769 ft 467 kts 279°
2026-04-07 13:57 72.70946 -54.79671 37781 ft 467 kts 278°
2026-04-07 13:58 72.72423 -55.01031 37766 ft 468 kts 278°
2026-04-07 13:58 72.73875 -55.22374 37776 ft 468 kts 278°
2026-04-07 13:59 72.75303 -55.43734 37754 ft 467 kts 278°
2026-04-07 13:59 72.76708 -55.65135 37775 ft 467 kts 278°
2026-04-07 14:00 72.78091 -55.86548 37782 ft 467 kts 277°
2026-04-07 14:00 72.79451 -56.08012 37790 ft 467 kts 277°
2026-04-07 14:01 72.80787 -56.29492 37786 ft 467 kts 277°
2026-04-07 14:01 72.82097 -56.50930 37792 ft 467 kts 277°
2026-04-07 14:02 72.83388 -56.72479 37796 ft 467 kts 277°
2026-04-07 14:02 72.84657 -56.94060 37805 ft 467 kts 276°
2026-04-07 14:03 72.85896 -57.15572 37801 ft 467 kts 276°
2026-04-07 14:03 72.87119 -57.37217 37815 ft 467 kts 276°
2026-04-07 14:04 72.88318 -57.58869 37814 ft 467 kts 276°
2026-04-07 14:04 72.89494 -57.80561 37815 ft 467 kts 276°
2026-04-07 14:05 72.90645 -58.02265 37811 ft 467 kts 275°
2026-04-07 14:05 72.91776 -58.24016 37820 ft 467 kts 275°
2026-04-07 14:06 72.92882 -58.45785 37827 ft 467 kts 275°
2026-04-07 14:06 72.93965 -58.67584 37829 ft 467 kts 275°
2026-04-07 14:07 72.95024 -58.89397 37827 ft 467 kts 275°
2026-04-07 14:07 72.96053 -59.11091 37829 ft 467 kts 274°
2026-04-07 14:08 72.97065 -59.32929 37833 ft 466 kts 274°
2026-04-07 14:08 72.98055 -59.54845 37832 ft 466 kts 274°
2026-04-07 14:09 72.99021 -59.76753 37836 ft 466 kts 274°
2026-04-07 14:09 72.99809 -59.98686 37845 ft 462 kts 266°
2026-04-07 14:10 72.99553 -60.20476 37837 ft 459 kts 261°
2026-04-07 14:10 72.99000 -60.42175 37837 ft 458 kts 260°
2026-04-07 14:11 72.98378 -60.63814 37847 ft 458 kts 260°
2026-04-07 14:11 72.97749 -60.85487 37840 ft 459 kts 259°
2026-04-07 14:12 72.97118 -61.06995 37840 ft 459 kts 259°
2026-04-07 14:12 72.96465 -61.28627 37840 ft 458 kts 259°
2026-04-07 14:13 72.95789 -61.50237 37847 ft 459 kts 259°
2026-04-07 14:13 72.95089 -61.71859 37840 ft 459 kts 259°
2026-04-07 14:14 72.94364 -61.93514 37840 ft 459 kts 259°
2026-04-07 14:14 72.93617 -62.15120 37840 ft 459 kts 258°
2026-04-07 14:15 72.92848 -62.36677 37847 ft 459 kts 258°
2026-04-07 14:15 72.92056 -62.58205 37850 ft 458 kts 258°
2026-04-07 14:16 72.91242 -62.79713 37841 ft 458 kts 258°
2026-04-07 14:16 72.90406 -63.01190 37841 ft 458 kts 258°
2026-04-07 14:17 72.89547 -63.22639 37844 ft 458 kts 257°
2026-04-07 14:17 72.88666 -63.44070 37841 ft 458 kts 257°
2026-04-07 14:18 72.87769 -63.65332 37847 ft 458 kts 257°
2026-04-07 14:18 72.86843 -63.86717 37845 ft 458 kts 257°
2026-04-07 14:19 72.85895 -64.08055 37841 ft 458 kts 257°
2026-04-07 14:19 72.84925 -64.29378 37841 ft 458 kts 256°
2026-04-07 14:20 72.83934 -64.50661 37841 ft 458 kts 256°
2026-04-07 14:20 72.82920 -64.71909 37840 ft 458 kts 256°
2026-04-07 14:21 72.81880 -64.93233 37854 ft 458 kts 256°
2026-04-07 14:21 72.80819 -65.14483 37838 ft 458 kts 256°
2026-04-07 14:22 72.79736 -65.35717 37828 ft 458 kts 256°
2026-04-07 14:22 72.78632 -65.56905 37841 ft 458 kts 255°
2026-04-07 14:23 72.77505 -65.78072 37828 ft 458 kts 255°
2026-04-07 14:23 72.76357 -65.99197 37844 ft 458 kts 255°
2026-04-07 14:24 72.75184 -66.20345 37832 ft 459 kts 255°
2026-04-07 14:24 72.73989 -66.41459 37829 ft 459 kts 255°
2026-04-07 14:25 72.72784 -66.62351 37829 ft 459 kts 255°
2026-04-07 14:25 72.71544 -66.83446 37828 ft 459 kts 254°
2026-04-07 14:26 72.70284 -67.04466 37845 ft 459 kts 254°
2026-04-07 14:26 72.69003 -67.25445 37833 ft 459 kts 254°
2026-04-07 14:27 72.67699 -67.46409 37835 ft 459 kts 254°
2026-04-07 14:27 72.66397 -67.67386 37828 ft 461 kts 257°
2026-04-07 14:28 72.65715 -67.88819 37826 ft 463 kts 261°
2026-04-07 14:28 72.65202 -68.10359 37828 ft 464 kts 261°
2026-04-07 14:29 72.64702 -68.31887 37829 ft 464 kts 261°
2026-04-07 14:29 72.64263 -68.49772 37823 ft 463 kts 261°
2026-04-07 14:30 72.63705 -68.71260 37825 ft 463 kts 261°
2026-04-07 14:30 72.63119 -68.92754 37824 ft 464 kts 261°
2026-04-07 14:31 72.62509 -69.14268 37823 ft 464 kts 261°
2026-04-07 14:31 72.61876 -69.35755 37827 ft 464 kts 260°
2026-04-07 14:32 72.61222 -69.57223 37834 ft 464 kts 260°
2026-04-07 14:32 72.60544 -69.78662 37827 ft 465 kts 260°
2026-04-07 14:33 72.59842 -70.00139 37825 ft 465 kts 260°
2026-04-07 14:33 72.59117 -70.21605 37838 ft 465 kts 260°
2026-04-07 14:34 72.58368 -70.43063 37829 ft 465 kts 259°
2026-04-07 14:34 72.57596 -70.64504 37837 ft 465 kts 259°
2026-04-07 14:35 72.56808 -70.85778 37837 ft 465 kts 259°
2026-04-07 14:35 72.55990 -71.07187 37837 ft 465 kts 259°
2026-04-07 14:36 72.55151 -71.28561 37843 ft 465 kts 259°
2026-04-07 14:36 72.54288 -71.49912 37860 ft 465 kts 259°
2026-04-07 14:37 72.53402 -71.71264 37845 ft 466 kts 259°
2026-04-07 14:37 72.52492 -71.92628 37851 ft 466 kts 258°
2026-04-07 14:38 72.51559 -72.13969 37848 ft 466 kts 258°
2026-04-07 14:38 72.50604 -72.35286 37851 ft 466 kts 258°
2026-04-07 14:39 72.49127 -72.67238 37850 ft 467 kts 258°
2026-04-07 14:40 72.48114 -72.88512 37866 ft 467 kts 258°
2026-04-07 14:40 72.47077 -73.09787 37861 ft 467 kts 258°
2026-04-07 14:41 72.46016 -73.31069 37858 ft 468 kts 258°
2026-04-07 14:41 72.44933 -73.52301 37863 ft 467 kts 257°
2026-04-07 14:42 72.43834 -73.73382 37859 ft 467 kts 257°
2026-04-07 14:42 72.42707 -73.94561 37865 ft 467 kts 257°
2026-04-07 14:43 72.41557 -74.15715 37884 ft 467 kts 257°
2026-04-07 14:43 72.40384 -74.36857 37870 ft 468 kts 257°
2026-04-07 14:44 72.39187 -74.57977 37869 ft 468 kts 257°
2026-04-07 14:44 72.37969 -74.79064 37866 ft 467 kts 257°
2026-04-07 14:45 72.36728 -75.00119 37857 ft 468 kts 257°
2026-04-07 14:45 72.35465 -75.21151 37854 ft 468 kts 256°
2026-04-07 14:46 72.34179 -75.42164 37858 ft 468 kts 256°
2026-04-07 14:46 72.32871 -75.63137 37838 ft 468 kts 256°
2026-04-07 14:47 72.31542 -75.84078 37841 ft 468 kts 256°
2026-04-07 14:47 72.30190 -76.04978 37830 ft 468 kts 256°
2026-04-07 14:48 72.28815 -76.25876 37832 ft 468 kts 256°
2026-04-07 14:48 72.27419 -76.46727 37831 ft 468 kts 256°
2026-04-07 14:49 72.26002 -76.67533 37832 ft 467 kts 255°
2026-04-07 14:49 72.24562 -76.88302 37834 ft 467 kts 255°
2026-04-07 14:50 72.23102 -77.09042 37857 ft 467 kts 255°
2026-04-07 14:50 72.21629 -77.29620 37854 ft 467 kts 255°
2026-04-07 14:51 72.20114 -77.50441 37861 ft 467 kts 255°
2026-04-07 14:51 72.18598 -77.70931 37854 ft 468 kts 255°
2026-04-07 14:52 72.17048 -77.91565 37853 ft 468 kts 254°
2026-04-07 14:52 72.15467 -78.12287 37876 ft 467 kts 254°
2026-04-07 14:53 72.13875 -78.32834 37876 ft 468 kts 254°
2026-04-07 14:53 72.12263 -78.53335 37877 ft 468 kts 254°
2026-04-07 14:54 72.10639 -78.73681 37887 ft 468 kts 254°
2026-04-07 14:54 72.08972 -78.94257 37886 ft 468 kts 253°
2026-04-07 14:55 72.07306 -79.14517 37878 ft 467 kts 253°
2026-04-07 14:55 72.05607 -79.34889 37887 ft 467 kts 253°
2026-04-07 14:56 72.03888 -79.55210 37878 ft 468 kts 253°
2026-04-07 14:56 72.02148 -79.75491 37873 ft 468 kts 253°
2026-04-07 14:57 72.00386 -79.95750 37872 ft 468 kts 253°
2026-04-07 14:57 71.98429 -80.15774 37862 ft 467 kts 249°
2026-04-07 14:58 71.96084 -80.35323 37861 ft 467 kts 247°
2026-04-07 14:58 71.93704 -80.54817 37862 ft 467 kts 248°
2026-04-07 14:59 71.91362 -80.74337 37864 ft 467 kts 248°
2026-04-07 14:59 71.89031 -80.93846 37862 ft 468 kts 248°
2026-04-07 15:00 71.86684 -81.13334 37867 ft 468 kts 248°
2026-04-07 15:00 71.84332 -81.32634 37869 ft 468 kts 248°
2026-04-07 15:01 71.81942 -81.52015 37870 ft 468 kts 248°
2026-04-07 15:01 71.79538 -81.71310 37856 ft 463 kts 248°
2026-04-07 15:02 71.77146 -81.90302 37857 ft 459 kts 248°
2026-04-07 15:02 71.74742 -82.09193 37860 ft 459 kts 247°
2026-04-07 15:03 71.72317 -82.28051 37859 ft 460 kts 247°
2026-04-07 15:03 71.69869 -82.46903 37859 ft 461 kts 247°
2026-04-07 15:04 71.67403 -82.65698 37859 ft 461 kts 247°
2026-04-07 15:04 71.64919 -82.84448 37859 ft 461 kts 247°
2026-04-07 15:05 71.62416 -83.03153 37859 ft 461 kts 246°
2026-04-07 15:05 71.59893 -83.21813 37864 ft 461 kts 246°
2026-04-07 15:06 71.57352 -83.40430 37870 ft 461 kts 246°
2026-04-07 15:06 71.54793 -83.59002 37873 ft 461 kts 246°
2026-04-07 15:07 71.52214 -83.77529 37873 ft 461 kts 246°
2026-04-07 15:07 71.49619 -83.95994 37873 ft 461 kts 246°
2026-04-07 15:08 71.47023 -84.14294 37882 ft 461 kts 246°
2026-04-07 15:08 71.44390 -84.32678 37878 ft 462 kts 246°
2026-04-07 15:09 71.41734 -84.51051 37878 ft 463 kts 246°
2026-04-07 15:09 71.39058 -84.69381 37881 ft 463 kts 245°
2026-04-07 15:10 71.36364 -84.87666 37881 ft 463 kts 245°
2026-04-07 15:10 71.33653 -85.05897 37883 ft 463 kts 245°
2026-04-07 15:11 71.30925 -85.24072 37883 ft 463 kts 245°
2026-04-07 15:11 71.28179 -85.42200 37881 ft 463 kts 245°
2026-04-07 15:12 71.25415 -85.60286 37884 ft 463 kts 245°
2026-04-07 15:12 71.22627 -85.78357 37876 ft 464 kts 245°
2026-04-07 15:13 71.19822 -85.96371 37883 ft 464 kts 245°
2026-04-07 15:13 71.16996 -86.14362 37881 ft 464 kts 245°
2026-04-07 15:14 71.14154 -86.32290 37881 ft 464 kts 244°
2026-04-07 15:14 71.11295 -86.50164 37891 ft 464 kts 244°
2026-04-07 15:15 71.08418 -86.67993 37878 ft 464 kts 244°
2026-04-07 15:15 71.05521 -86.85794 37889 ft 465 kts 244°
2026-04-07 15:16 71.02606 -87.03545 37892 ft 465 kts 244°
2026-04-07 15:16 70.99673 -87.21254 37893 ft 465 kts 244°
2026-04-07 15:17 70.96725 -87.38893 37892 ft 465 kts 244°
2026-04-07 15:17 70.94260 -87.53527 37896 ft 465 kts 244°
2026-04-07 15:18 70.91281 -87.71078 37894 ft 465 kts 244°
2026-04-07 15:18 70.88285 -87.88577 37896 ft 465 kts 244°
2026-04-07 15:19 70.85267 -88.06053 37898 ft 466 kts 244°
2026-04-07 15:19 70.82234 -88.23469 37900 ft 466 kts 244°
2026-04-07 15:20 70.79183 -88.40845 37903 ft 466 kts 243°
2026-04-07 15:20 70.76115 -88.58164 37906 ft 466 kts 243°
2026-04-07 15:21 70.73029 -88.75440 37909 ft 466 kts 243°
2026-04-07 15:21 70.69930 -88.92647 37908 ft 466 kts 243°
2026-04-07 15:22 70.66835 -89.09696 37908 ft 466 kts 243°
2026-04-07 15:22 70.63681 -89.26920 37914 ft 466 kts 243°
2026-04-07 15:23 70.60550 -89.43883 37914 ft 466 kts 243°
2026-04-07 15:23 70.57386 -89.60883 37917 ft 466 kts 242°
2026-04-07 15:24 70.54203 -89.77851 37917 ft 466 kts 242°
2026-04-07 15:24 70.51004 -89.94764 37914 ft 467 kts 242°
2026-04-07 15:25 70.47419 -90.11019 37919 ft 468 kts 237°
2026-04-07 15:25 70.43666 -90.26911 37925 ft 469 kts 236°
2026-04-07 15:26 70.39868 -90.42710 37924 ft 469 kts 236°
2026-04-07 15:26 70.36061 -90.58457 37927 ft 469 kts 236°
2026-04-07 15:27 70.32251 -90.74140 37928 ft 469 kts 236°
2026-04-07 15:27 70.28423 -90.89799 37936 ft 469 kts 236°
2026-04-07 15:28 70.24586 -91.05377 37936 ft 469 kts 236°
2026-04-07 15:28 70.20728 -91.20928 37939 ft 469 kts 236°
2026-04-07 15:29 70.16854 -91.36434 37938 ft 470 kts 236°
2026-04-07 15:29 70.12967 -91.51878 37944 ft 470 kts 236°
2026-04-07 15:30 70.09068 -91.67259 37937 ft 470 kts 235°
2026-04-07 15:30 70.05153 -91.82590 37955 ft 470 kts 235°
2026-04-07 15:31 70.01228 -91.97855 37952 ft 470 kts 235°
2026-04-07 15:31 69.97289 -92.13068 37943 ft 469 kts 235°
2026-04-07 15:32 69.93360 -92.28133 37958 ft 470 kts 235°
2026-04-07 15:32 69.89390 -92.43247 37960 ft 470 kts 235°
2026-04-07 15:33 69.85413 -92.58283 37971 ft 470 kts 235°
2026-04-07 15:33 69.81411 -92.73312 37972 ft 470 kts 235°
2026-04-07 15:34 69.77407 -92.88239 37969 ft 470 kts 234°
2026-04-07 15:34 69.73389 -93.03119 37988 ft 470 kts 234°
2026-04-07 15:35 69.69330 -93.18044 37986 ft 470 kts 235°
2026-04-07 15:35 69.65283 -93.32823 37990 ft 470 kts 234°
2026-04-07 15:36 69.61252 -93.47443 37996 ft 470 kts 234°
2026-04-07 15:36 69.57177 -93.62122 37989 ft 470 kts 234°
2026-04-07 15:37 69.53091 -93.76743 37996 ft 470 kts 234°
2026-04-07 15:37 69.48995 -93.91296 37996 ft 470 kts 234°
2026-04-07 15:38 69.44882 -94.05811 38001 ft 470 kts 234°
2026-04-07 15:38 69.40758 -94.20271 37999 ft 471 kts 234°
2026-04-07 15:39 69.36616 -94.34695 37999 ft 472 kts 234°
2026-04-07 15:39 69.32459 -94.49076 38005 ft 472 kts 234°
2026-04-07 15:40 69.28292 -94.63391 38004 ft 472 kts 234°
2026-04-07 15:40 69.24108 -94.77671 38003 ft 472 kts 234°
2026-04-07 15:41 69.19915 -94.91886 38005 ft 472 kts 233°
2026-04-07 15:41 69.15736 -95.05960 37986 ft 472 kts 234°
2026-04-07 15:42 69.11519 -95.20072 38006 ft 472 kts 234°
2026-04-07 15:42 69.05164 -95.41156 38013 ft 472 kts 233°
2026-04-07 15:43 69.00915 -95.55141 38034 ft 472 kts 233°
2026-04-07 15:43 68.96655 -95.69071 38036 ft 472 kts 233°
2026-04-07 15:44 68.92379 -95.82959 38040 ft 473 kts 233°
2026-04-07 15:44 68.88092 -95.96794 38038 ft 472 kts 234°
2026-04-07 15:45 68.83803 -96.10550 38054 ft 471 kts 234°
2026-04-07 15:45 68.79513 -96.24216 38053 ft 470 kts 234°
2026-04-07 15:46 68.75213 -96.37825 38052 ft 471 kts 233°
2026-04-07 15:46 68.70899 -96.51396 38058 ft 471 kts 233°
2026-04-07 15:47 68.66595 -96.64851 38060 ft 472 kts 233°
2026-04-07 15:47 68.62247 -96.78355 38055 ft 472 kts 233°
2026-04-07 15:48 68.57893 -96.91789 38053 ft 471 kts 233°
2026-04-07 15:48 68.53543 -97.05124 38060 ft 469 kts 233°
2026-04-07 15:49 68.49199 -97.18363 38052 ft 469 kts 233°
2026-04-07 15:49 68.44838 -97.31570 38057 ft 469 kts 233°
2026-04-07 15:50 68.40466 -97.44730 38064 ft 469 kts 233°
2026-04-07 15:50 68.36085 -97.57833 38058 ft 469 kts 233°
2026-04-07 15:51 68.31690 -97.70901 38023 ft 470 kts 233°
2026-04-07 15:51 68.27281 -97.83925 38066 ft 470 kts 233°
2026-04-07 15:52 68.22863 -97.96894 38067 ft 469 kts 233°
2026-04-07 15:52 68.18436 -98.09814 38069 ft 469 kts 233°
2026-04-07 15:53 68.13998 -98.22685 38069 ft 470 kts 232°
2026-04-07 15:53 68.09550 -98.35506 38078 ft 470 kts 232°
2026-04-07 15:54 68.05091 -98.48283 38074 ft 470 kts 232°
2026-04-07 15:54 68.00620 -98.61014 38076 ft 470 kts 232°
2026-04-07 15:55 67.96139 -98.73700 38081 ft 470 kts 232°
2026-04-07 15:55 67.91649 -98.86329 38085 ft 470 kts 232°
2026-04-07 15:56 67.87149 -98.98916 38088 ft 470 kts 232°
2026-04-07 15:56 67.82669 -99.11371 38088 ft 470 kts 232°
2026-04-07 15:57 67.78149 -99.23859 38086 ft 470 kts 232°
2026-04-07 15:57 67.73619 -99.36305 38051 ft 470 kts 232°
2026-04-07 15:58 67.69080 -99.48699 38094 ft 470 kts 232°
2026-04-07 15:58 67.64537 -99.61029 38100 ft 469 kts 231°
2026-04-07 15:59 67.59983 -99.73320 38099 ft 469 kts 231°
2026-04-07 15:59 67.55420 -99.85561 38099 ft 470 kts 231°
2026-04-07 16:00 67.50846 -99.97760 38102 ft 470 kts 231°
2026-04-07 16:00 67.46158 -100.09681 38116 ft 472 kts 228°
2026-04-07 16:01 67.41254 -100.21085 38099 ft 473 kts 227°
2026-04-07 16:01 67.36345 -100.32401 38118 ft 471 kts 227°
2026-04-07 16:02 67.31466 -100.43740 38125 ft 471 kts 227°
2026-04-07 16:02 67.26598 -100.55073 38124 ft 471 kts 227°
2026-04-07 16:03 67.21723 -100.66371 38127 ft 471 kts 227°
2026-04-07 16:03 67.16873 -100.77542 38126 ft 471 kts 227°
2026-04-07 16:04 67.11982 -100.88738 38153 ft 470 kts 227°
2026-04-07 16:04 67.07091 -100.99869 38140 ft 470 kts 227°
2026-04-07 16:05 67.02198 -101.10943 38148 ft 469 kts 227°
2026-04-07 16:05 66.97301 -101.21968 38151 ft 469 kts 227°
2026-04-07 16:06 66.92398 -101.32942 38153 ft 469 kts 227°
2026-04-07 16:06 66.88313 -101.42039 38154 ft 469 kts 227°
2026-04-07 16:07 66.83357 -101.53019 38162 ft 469 kts 227°
2026-04-07 16:07 66.78463 -101.63804 38154 ft 469 kts 227°
2026-04-07 16:08 66.73524 -101.74625 38162 ft 469 kts 227°
2026-04-07 16:08 66.68586 -101.85385 38173 ft 469 kts 227°
2026-04-07 16:09 66.63638 -101.96108 38174 ft 469 kts 227°
2026-04-07 16:09 66.58683 -102.06790 38173 ft 469 kts 227°
2026-04-07 16:10 66.53719 -102.17432 38181 ft 469 kts 227°
2026-04-07 16:10 66.48748 -102.28030 38181 ft 469 kts 226°
2026-04-07 16:11 66.43773 -102.38580 38142 ft 469 kts 226°
2026-04-07 16:11 66.38779 -102.49112 38188 ft 469 kts 226°
2026-04-07 16:12 66.33785 -102.59589 38190 ft 469 kts 226°
2026-04-07 16:12 66.28785 -102.70022 38195 ft 469 kts 226°
2026-04-07 16:13 66.23775 -102.80420 38195 ft 469 kts 226°
2026-04-07 16:13 66.18760 -102.90771 38202 ft 469 kts 226°
2026-04-07 16:14 66.13733 -103.01094 38203 ft 470 kts 226°
2026-04-07 16:14 66.08701 -103.11370 38201 ft 470 kts 226°
2026-04-07 16:15 66.03664 -103.21604 38214 ft 469 kts 226°
2026-04-07 16:15 65.98623 -103.31789 38207 ft 469 kts 226°
2026-04-07 16:16 65.93574 -103.41938 38214 ft 469 kts 226°
2026-04-07 16:16 65.88553 -103.51979 38219 ft 469 kts 225°
2026-04-07 16:17 65.83491 -103.62047 38221 ft 469 kts 225°
2026-04-07 16:17 65.78422 -103.72077 38159 ft 469 kts 225°
2026-04-07 16:18 65.73347 -103.82066 38232 ft 469 kts 225°
2026-04-07 16:18 65.68269 -103.92011 38237 ft 469 kts 225°
2026-04-07 16:19 65.63183 -104.01919 38232 ft 469 kts 225°
2026-04-07 16:19 65.58090 -104.11790 38234 ft 469 kts 225°
2026-04-07 16:20 65.52995 -104.21613 38236 ft 469 kts 225°
2026-04-07 16:20 65.47890 -104.31404 38241 ft 469 kts 225°
2026-04-07 16:21 65.42782 -104.41152 38250 ft 469 kts 225°
2026-04-07 16:21 65.37661 -104.50874 38249 ft 469 kts 224°
2026-04-07 16:22 65.32531 -104.60565 38252 ft 469 kts 224°
2026-04-07 16:22 65.27397 -104.70212 38257 ft 470 kts 224°
2026-04-07 16:23 65.22288 -104.79763 38260 ft 470 kts 224°
2026-04-07 16:23 65.17139 -104.89341 38257 ft 470 kts 224°
2026-04-07 16:24 65.11986 -104.98878 38257 ft 469 kts 224°
2026-04-07 16:24 65.06830 -105.08372 38266 ft 469 kts 224°
2026-04-07 16:25 65.01678 -105.17811 38264 ft 467 kts 224°
2026-04-07 16:25 64.96542 -105.27171 38271 ft 466 kts 224°
2026-04-07 16:26 64.91406 -105.36491 38273 ft 466 kts 224°
2026-04-07 16:26 64.86264 -105.45777 38274 ft 466 kts 223°
2026-04-07 16:27 64.81118 -105.55020 38281 ft 466 kts 223°
2026-04-07 16:27 64.75963 -105.64232 38281 ft 465 kts 223°
2026-04-07 16:28 64.70815 -105.73387 38288 ft 465 kts 223°
2026-04-07 16:28 64.65665 -105.82503 38287 ft 465 kts 223°
2026-04-07 16:29 64.60506 -105.91590 38292 ft 465 kts 223°
2026-04-07 16:29 64.55342 -106.00643 38293 ft 465 kts 223°
2026-04-07 16:30 64.50172 -106.09661 38291 ft 465 kts 223°
2026-04-07 16:30 64.44994 -106.18649 38269 ft 465 kts 223°
2026-04-07 16:31 64.39816 -106.27591 38300 ft 464 kts 223°
2026-04-07 16:31 64.34678 -106.36423 38290 ft 463 kts 223°
2026-04-07 16:32 64.29504 -106.45276 38300 ft 463 kts 223°
2026-04-07 16:32 64.24327 -106.54093 38308 ft 463 kts 223°
2026-04-07 16:33 64.19144 -106.62877 38309 ft 463 kts 223°
2026-04-07 16:33 64.13952 -106.71634 38297 ft 463 kts 223°
2026-04-07 16:34 64.08754 -106.80359 38298 ft 463 kts 222°
2026-04-07 16:34 64.03556 -106.89042 38311 ft 463 kts 222°
2026-04-07 16:35 63.98356 -106.97690 38318 ft 463 kts 222°
2026-04-07 16:35 63.93144 -107.06318 38314 ft 464 kts 221°
2026-04-07 16:36 63.87919 -107.14924 38318 ft 464 kts 221°
2026-04-07 16:36 63.82688 -107.23500 38319 ft 464 kts 221°
2026-04-07 16:37 63.77456 -107.32038 38317 ft 464 kts 221°
2026-04-07 16:37 63.72217 -107.40547 38321 ft 463 kts 221°
2026-04-07 16:38 63.66977 -107.49018 38324 ft 463 kts 221°
2026-04-07 16:38 63.61737 -107.57451 38327 ft 463 kts 221°
2026-04-07 16:39 63.56488 -107.65860 38327 ft 463 kts 221°
2026-04-07 16:39 63.51231 -107.74242 38327 ft 464 kts 221°
2026-04-07 16:40 63.45970 -107.82593 38332 ft 464 kts 221°
2026-04-07 16:40 63.40708 -107.90904 38329 ft 463 kts 220°
2026-04-07 16:41 63.35445 -107.99179 38338 ft 462 kts 220°
2026-04-07 16:41 63.30182 -108.07420 38337 ft 463 kts 220°
2026-04-07 16:42 63.24914 -108.15630 38340 ft 463 kts 220°
2026-04-07 16:42 63.19637 -108.23817 38332 ft 463 kts 220°
2026-04-07 16:43 63.14355 -108.31972 38334 ft 463 kts 220°
2026-04-07 16:43 63.09110 -108.40035 38305 ft 462 kts 220°
2026-04-07 16:44 63.03793 -108.48168 38336 ft 461 kts 220°
2026-04-07 16:44 62.98553 -108.56154 38335 ft 461 kts 220°
2026-04-07 16:45 62.93270 -108.64169 38335 ft 461 kts 219°
2026-04-07 16:45 62.87982 -108.72153 38335 ft 462 kts 219°
2026-04-07 16:46 62.82686 -108.80115 38334 ft 462 kts 219°
2026-04-07 16:46 62.77386 -108.88048 38323 ft 462 kts 219°
2026-04-07 16:47 62.72087 -108.95941 38333 ft 460 kts 219°
2026-04-07 16:47 62.66800 -109.03783 38331 ft 460 kts 219°
2026-04-07 16:48 62.61510 -109.11598 38330 ft 460 kts 219°
2026-04-07 16:49 62.53566 -109.23267 38326 ft 460 kts 219°
2026-04-07 16:49 62.48295 -109.30967 38326 ft 460 kts 219°
2026-04-07 16:50 62.42949 -109.38742 38325 ft 460 kts 219°
2026-04-07 16:50 62.37679 -109.46372 38300 ft 459 kts 219°
2026-04-07 16:51 62.32345 -109.54063 38314 ft 458 kts 219°
2026-04-07 16:51 62.27085 -109.61616 38309 ft 458 kts 219°
2026-04-07 16:52 62.21785 -109.69194 38306 ft 458 kts 219°
2026-04-07 16:52 62.16474 -109.76753 38310 ft 458 kts 218°
2026-04-07 16:53 62.11164 -109.84280 38295 ft 458 kts 218°
2026-04-07 16:53 62.05853 -109.91776 38292 ft 458 kts 218°
2026-04-07 16:54 62.00496 -109.99191 38425 ft 464 kts 214°
2026-04-07 16:54 61.97650 -110.02470 38551 ft 467 kts 212°
2026-04-07 16:54 61.94761 -110.05645 38699 ft 468 kts 212°
2026-04-07 16:54 61.91850 -110.08757 38876 ft 469 kts 211°
2026-04-07 16:55 61.88931 -110.11834 39031 ft 469 kts 211°
2026-04-07 16:55 61.86006 -110.14900 39158 ft 469 kts 211°
2026-04-07 16:55 61.84066 -110.16931 39249 ft 469 kts 211°
2026-04-07 16:55 61.81142 -110.19992 39371 ft 469 kts 211°
2026-04-07 16:56 61.78214 -110.23056 39524 ft 470 kts 211°
2026-04-07 16:56 61.75287 -110.26120 39650 ft 470 kts 211°
2026-04-07 16:56 61.72358 -110.29184 39780 ft 470 kts 211°
2026-04-07 16:57 61.66499 -110.35295 40038 ft 469 kts 211°
2026-04-07 16:57 61.63575 -110.38337 40168 ft 469 kts 211°
2026-04-07 16:57 61.60648 -110.41376 40258 ft 471 kts 211°
2026-04-07 16:58 61.54743 -110.47490 40252 ft 474 kts 211°
2026-04-07 16:58 61.48837 -110.53568 40251 ft 472 kts 211°
2026-04-07 16:59 61.42943 -110.59609 40249 ft 472 kts 211°
2026-04-07 16:59 61.37046 -110.65631 40238 ft 472 kts 211°
2026-04-07 17:00 61.31144 -110.71633 40238 ft 472 kts 211°
2026-04-07 17:00 61.25241 -110.77611 40239 ft 472 kts 211°
2026-04-07 17:01 61.19335 -110.83567 40224 ft 472 kts 211°
2026-04-07 17:01 61.13424 -110.89502 40226 ft 472 kts 211°
2026-04-07 17:02 61.07514 -110.95412 40222 ft 472 kts 211°
2026-04-07 17:02 61.01605 -111.01296 40225 ft 472 kts 211°
2026-04-07 17:03 60.95795 -111.07057 40222 ft 472 kts 211°
2026-04-07 17:03 60.89881 -111.12897 40218 ft 471 kts 210°
2026-04-07 17:04 60.83928 -111.18752 40200 ft 471 kts 210°
2026-04-07 17:04 60.78055 -111.24505 40214 ft 471 kts 210°
2026-04-07 17:05 60.72135 -111.30280 40203 ft 471 kts 210°
2026-04-07 17:05 60.66215 -111.36033 40200 ft 471 kts 210°
2026-04-07 17:06 60.60288 -111.41766 40196 ft 471 kts 210°
2026-04-07 17:06 60.54363 -111.47476 40156 ft 471 kts 210°
2026-04-07 17:07 60.48437 -111.53162 40192 ft 471 kts 210°
2026-04-07 17:07 60.42511 -111.58825 40184 ft 471 kts 210°
2026-04-07 17:08 60.36589 -111.64463 40183 ft 470 kts 210°
2026-04-07 17:08 60.30664 -111.70080 40161 ft 471 kts 210°
2026-04-07 17:09 60.24767 -111.75649 40142 ft 470 kts 210°
2026-04-07 17:09 60.18827 -111.81236 40125 ft 471 kts 210°
2026-04-07 17:10 60.12896 -111.86794 40104 ft 471 kts 209°
2026-04-07 17:10 60.06957 -111.92335 40099 ft 470 kts 209°
2026-04-07 17:11 60.01026 -111.97849 40101 ft 470 kts 209°
2026-04-07 17:11 59.95102 -112.03368 40100 ft 470 kts 209°
2026-04-07 17:12 59.89178 -112.08875 40112 ft 470 kts 209°
2026-04-07 17:12 59.83249 -112.14364 40126 ft 470 kts 209°
2026-04-07 17:13 59.77321 -112.19830 40107 ft 470 kts 209°
2026-04-07 17:13 59.71429 -112.25241 40155 ft 469 kts 209°
2026-04-07 17:14 59.65495 -112.30666 40144 ft 469 kts 209°
2026-04-07 17:14 59.59556 -112.36075 40142 ft 469 kts 209°
2026-04-07 17:15 59.53617 -112.41464 40151 ft 469 kts 209°
2026-04-07 17:15 59.47681 -112.46830 40132 ft 470 kts 209°
2026-04-07 17:16 59.41739 -112.52181 40137 ft 470 kts 209°
2026-04-07 17:16 59.35800 -112.57508 40115 ft 469 kts 208°
2026-04-07 17:17 59.29859 -112.62815 40124 ft 469 kts 208°
2026-04-07 17:17 59.23920 -112.68099 40123 ft 469 kts 208°
2026-04-07 17:18 59.17983 -112.73363 40116 ft 469 kts 208°
2026-04-07 17:18 59.12038 -112.78614 40119 ft 469 kts 208°
2026-04-07 17:19 59.06096 -112.83842 40102 ft 469 kts 208°
2026-04-07 17:19 59.00150 -112.89054 40104 ft 469 kts 208°
2026-04-07 17:20 58.94208 -112.94244 40106 ft 468 kts 208°
2026-04-07 17:20 58.88268 -112.99409 40091 ft 468 kts 208°
2026-04-07 17:21 58.82327 -113.04556 40085 ft 468 kts 208°
2026-04-07 17:21 58.76387 -113.09683 40076 ft 468 kts 208°
2026-04-07 17:22 58.70439 -113.14799 40074 ft 468 kts 208°
2026-04-07 17:22 58.64493 -113.19893 40023 ft 468 kts 207°
2026-04-07 17:23 58.58547 -113.24973 40055 ft 468 kts 207°
2026-04-07 17:23 58.52641 -113.29993 40059 ft 468 kts 207°
2026-04-07 17:24 58.46692 -113.35032 40040 ft 468 kts 207°
2026-04-07 17:24 58.40738 -113.40059 40043 ft 468 kts 207°
2026-04-07 17:25 58.34782 -113.45067 40026 ft 468 kts 207°
2026-04-07 17:25 58.28821 -113.50062 40022 ft 468 kts 207°
2026-04-07 17:26 58.22903 -113.55005 40019 ft 468 kts 207°
2026-04-07 17:26 58.16925 -113.59977 40006 ft 468 kts 207°
2026-04-07 17:27 58.10955 -113.64923 40004 ft 468 kts 207°
2026-04-07 17:27 58.04988 -113.69849 39989 ft 468 kts 207°
2026-04-07 17:28 57.99028 -113.74753 39988 ft 468 kts 207°
2026-04-07 17:28 57.93057 -113.79647 39991 ft 468 kts 207°
2026-04-07 17:29 57.87093 -113.84519 39979 ft 467 kts 206°
2026-04-07 17:29 57.81128 -113.89372 39980 ft 467 kts 206°
2026-04-07 17:30 57.75164 -113.94208 39968 ft 467 kts 206°
2026-04-07 17:30 57.69197 -113.99028 39969 ft 467 kts 206°
2026-04-07 17:31 57.63224 -114.03836 39961 ft 467 kts 206°
2026-04-07 17:31 57.57293 -114.08594 39953 ft 467 kts 206°
2026-04-07 17:32 57.51280 -114.13399 39955 ft 467 kts 206°
2026-04-07 17:32 57.45345 -114.18126 39949 ft 467 kts 206°
2026-04-07 17:33 57.39332 -114.22897 39951 ft 467 kts 206°
2026-04-07 17:33 57.33397 -114.27590 39947 ft 467 kts 206°
2026-04-07 17:34 57.27416 -114.32302 39948 ft 467 kts 206°
2026-04-07 17:34 57.21436 -114.36998 39933 ft 467 kts 206°
2026-04-07 17:35 57.15453 -114.41679 39928 ft 466 kts 206°
2026-04-07 17:35 57.09467 -114.46346 39937 ft 467 kts 206°
2026-04-07 17:36 57.03484 -114.50993 39938 ft 467 kts 206°
2026-04-07 17:36 56.97496 -114.55630 39934 ft 467 kts 206°
2026-04-07 17:37 56.91504 -114.60252 39935 ft 467 kts 206°
2026-04-07 17:37 56.85514 -114.64857 39925 ft 467 kts 205°
2026-04-07 17:38 56.79527 -114.69443 39911 ft 466 kts 205°
2026-04-07 17:38 56.73536 -114.74017 39923 ft 467 kts 205°
2026-04-07 17:39 56.67537 -114.78581 39916 ft 467 kts 205°
2026-04-07 17:39 56.61534 -114.83132 39913 ft 467 kts 205°
2026-04-07 17:40 56.55530 -114.87668 39905 ft 467 kts 205°
2026-04-07 17:40 56.50539 -114.91428 39903 ft 467 kts 205°
2026-04-07 17:41 56.43565 -114.96662 39883 ft 467 kts 205°
2026-04-07 17:41 56.37557 -115.01155 39898 ft 468 kts 205°
2026-04-07 17:42 56.31543 -115.05638 39897 ft 468 kts 205°
2026-04-07 17:42 56.26491 -115.09390 39898 ft 468 kts 205°
2026-04-07 17:43 56.20469 -115.13850 39893 ft 468 kts 205°
2026-04-07 17:43 56.14442 -115.18298 39893 ft 468 kts 205°
2026-04-07 17:44 56.08407 -115.22737 39885 ft 468 kts 205°
2026-04-07 17:44 56.02415 -115.27130 39887 ft 470 kts 205°
2026-04-07 17:45 55.96356 -115.31557 39888 ft 470 kts 205°
2026-04-07 17:45 55.90300 -115.35966 39882 ft 470 kts 205°
2026-04-07 17:46 55.84231 -115.40370 39878 ft 470 kts 205°
2026-04-07 17:46 55.78169 -115.44754 39876 ft 470 kts 205°
2026-04-07 17:47 55.72103 -115.49126 39861 ft 470 kts 205°
2026-04-07 17:47 55.66033 -115.53486 39875 ft 472 kts 205°
2026-04-07 17:48 55.59943 -115.57847 39875 ft 472 kts 205°
2026-04-07 17:48 55.53849 -115.62195 39878 ft 472 kts 205°
2026-04-07 17:49 55.47752 -115.66531 39878 ft 472 kts 205°
2026-04-07 17:49 55.41658 -115.70850 39886 ft 472 kts 205°
2026-04-07 17:50 55.35571 -115.75150 39876 ft 471 kts 205°
2026-04-07 17:50 55.29471 -115.79446 39892 ft 473 kts 205°
2026-04-07 17:51 55.23355 -115.83738 39892 ft 473 kts 205°
2026-04-07 17:51 55.17237 -115.88017 39891 ft 474 kts 205°
2026-04-07 17:52 55.11115 -115.92284 39894 ft 473 kts 205°
2026-04-07 17:52 55.05009 -115.96527 39894 ft 472 kts 205°
2026-04-07 17:53 54.99005 -116.01087 39897 ft 469 kts 211°
2026-04-07 17:53 54.90400 -116.09210 39907 ft 469 kts 212°
2026-04-07 17:54 54.84700 -116.14735 39903 ft 469 kts 212°
2026-04-07 17:54 54.78997 -116.20233 39911 ft 469 kts 212°
2026-04-07 17:55 54.73288 -116.25699 39913 ft 468 kts 212°
2026-04-07 17:55 54.67590 -116.31128 39908 ft 468 kts 212°
2026-04-07 17:56 54.61916 -116.36519 39917 ft 469 kts 212°
2026-04-07 17:56 54.56198 -116.41934 39915 ft 469 kts 212°
2026-04-07 17:57 54.50476 -116.47336 39925 ft 469 kts 212°
2026-04-07 17:57 54.44753 -116.52721 39927 ft 469 kts 212°
2026-04-07 17:58 54.39023 -116.58095 39917 ft 469 kts 212°
2026-04-07 17:58 54.33290 -116.63455 39929 ft 469 kts 212°
2026-04-07 17:59 54.27554 -116.68801 39932 ft 470 kts 212°
2026-04-07 17:59 54.21814 -116.74134 39928 ft 470 kts 212°
2026-04-07 18:00 54.16071 -116.79452 39929 ft 470 kts 212°
2026-04-07 18:00 54.10326 -116.84755 39922 ft 470 kts 212°
2026-04-07 18:01 54.04578 -116.90044 39912 ft 469 kts 212°
2026-04-07 18:01 53.98837 -116.95313 39921 ft 468 kts 212°
2026-04-07 18:02 53.93101 -117.00556 39929 ft 468 kts 212°
2026-04-07 18:02 53.87366 -117.05781 39912 ft 468 kts 212°
2026-04-07 18:03 53.81629 -117.10991 39902 ft 468 kts 212°
2026-04-07 18:03 53.75880 -117.16202 39915 ft 469 kts 212°
2026-04-07 18:04 53.70126 -117.21399 39916 ft 469 kts 212°
2026-04-07 18:04 53.64373 -117.26577 39914 ft 468 kts 212°
2026-04-07 18:05 53.58630 -117.31730 39918 ft 467 kts 212°
2026-04-07 18:05 53.52886 -117.36868 39911 ft 467 kts 212°
2026-04-07 18:06 53.47145 -117.41988 39911 ft 468 kts 212°
2026-04-07 18:06 53.41388 -117.47107 39914 ft 468 kts 212°
2026-04-07 18:07 53.35630 -117.52212 39912 ft 468 kts 212°
2026-04-07 18:07 53.29910 -117.57266 39915 ft 467 kts 212°
2026-04-07 18:08 53.24162 -117.62328 39919 ft 466 kts 212°
2026-04-07 18:08 53.18415 -117.67373 39926 ft 467 kts 212°
2026-04-07 18:09 53.12657 -117.72419 39931 ft 468 kts 212°
2026-04-07 18:09 53.06888 -117.77461 39943 ft 468 kts 212°
2026-04-07 18:10 53.01115 -117.82482 39943 ft 468 kts 212°
2026-04-07 18:10 52.95340 -117.87492 39952 ft 468 kts 212°
2026-04-07 18:11 52.89571 -117.92475 39947 ft 468 kts 212°
2026-04-07 18:11 52.83798 -117.97452 39965 ft 468 kts 212°
2026-04-07 18:12 52.78023 -118.02420 39963 ft 468 kts 212°
2026-04-07 18:12 52.72248 -118.07368 39974 ft 468 kts 212°
2026-04-07 18:13 52.66471 -118.12299 39989 ft 467 kts 212°
2026-04-07 18:13 52.60692 -118.17214 40003 ft 469 kts 211°
2026-04-07 18:14 52.54744 -118.21686 40008 ft 471 kts 208°
2026-04-07 18:14 52.48725 -118.25949 40024 ft 471 kts 208°
2026-04-07 18:15 52.42716 -118.30254 40024 ft 471 kts 208°
2026-04-07 18:15 52.36727 -118.34601 40040 ft 471 kts 209°
2026-04-07 18:16 52.30746 -118.38949 40024 ft 471 kts 209°
2026-04-07 18:16 52.24758 -118.43302 40030 ft 471 kts 209°
2026-04-07 18:17 52.18775 -118.47640 40030 ft 470 kts 209°
2026-04-07 18:17 52.12789 -118.51962 40040 ft 471 kts 208°
2026-04-07 18:18 52.06792 -118.56272 40041 ft 471 kts 209°
2026-04-07 18:18 52.00797 -118.60571 40044 ft 471 kts 209°
2026-04-07 18:19 51.94791 -118.64865 40045 ft 472 kts 209°
2026-04-07 18:19 51.88775 -118.69144 40051 ft 471 kts 209°
2026-04-07 18:20 51.82768 -118.73416 40062 ft 472 kts 209°
2026-04-07 18:20 51.76803 -118.77636 40069 ft 471 kts 209°
2026-04-07 18:21 51.70801 -118.81880 40064 ft 471 kts 209°
2026-04-07 18:21 51.64787 -118.86121 40081 ft 473 kts 209°
2026-04-07 18:22 51.58758 -118.90358 40077 ft 473 kts 208°
2026-04-07 18:22 51.52726 -118.94584 40073 ft 473 kts 208°
2026-04-07 18:23 51.46695 -118.98797 40077 ft 473 kts 208°
2026-04-07 18:23 51.40661 -119.02998 40069 ft 473 kts 209°
2026-04-07 18:24 51.34612 -119.07200 40075 ft 474 kts 208°
2026-04-07 18:24 51.28553 -119.11394 40064 ft 474 kts 208°
2026-04-07 18:25 51.22499 -119.15573 40076 ft 474 kts 208°
2026-04-07 18:25 51.16491 -119.19707 40079 ft 473 kts 208°
2026-04-07 18:26 51.10440 -119.23864 40071 ft 473 kts 208°
2026-04-07 18:26 51.04394 -119.28005 40082 ft 473 kts 208°
2026-04-07 18:27 50.98340 -119.32134 40079 ft 474 kts 208°
2026-04-07 18:27 50.92291 -119.36249 40079 ft 472 kts 208°
2026-04-07 18:28 50.86268 -119.40334 40083 ft 471 kts 208°
2026-04-07 18:28 50.81223 -119.43749 40081 ft 472 kts 208°
2026-04-07 18:29 50.75215 -119.47810 40086 ft 473 kts 208°
2026-04-07 18:29 50.69155 -119.51889 40095 ft 474 kts 208°
2026-04-07 18:30 50.63098 -119.55955 40086 ft 473 kts 208°
2026-04-07 18:30 50.57043 -119.60006 40103 ft 472 kts 208°
2026-04-07 18:31 50.50999 -119.64038 40091 ft 471 kts 209°
2026-04-07 18:31 50.44972 -119.68049 40111 ft 471 kts 208°
2026-04-07 18:32 50.38940 -119.72057 40108 ft 471 kts 208°
2026-04-07 18:32 50.32909 -119.76054 40117 ft 471 kts 208°
2026-04-07 18:33 50.26869 -119.80041 40125 ft 471 kts 208°
2026-04-07 18:33 50.20839 -119.84009 40127 ft 470 kts 209°
2026-04-07 18:34 50.14826 -119.87955 40120 ft 468 kts 209°
2026-04-07 18:34 50.08822 -119.91888 40129 ft 468 kts 209°
2026-04-07 18:35 50.02856 -119.95785 40124 ft 468 kts 209°
2026-04-07 18:35 49.96850 -119.99698 40125 ft 469 kts 209°
2026-04-07 18:36 49.90837 -120.03604 40115 ft 468 kts 210°
2026-04-07 18:36 49.84844 -120.07483 40119 ft 467 kts 210°
2026-04-07 18:37 49.78840 -120.11361 40108 ft 467 kts 210°
2026-04-07 18:37 49.72837 -120.15230 40112 ft 467 kts 210°
2026-04-07 18:38 49.66835 -120.19086 40079 ft 467 kts 210°
2026-04-07 18:38 49.60860 -120.22911 40094 ft 463 kts 210°
2026-04-07 18:39 49.54909 -120.26713 40089 ft 462 kts 210°
2026-04-07 18:39 49.48963 -120.30508 40093 ft 463 kts 210°
2026-04-07 18:40 49.43018 -120.34290 40088 ft 462 kts 210°
2026-04-07 18:40 49.37201 -120.38372 40079 ft 455 kts 216°
2026-04-07 18:41 49.31776 -120.43168 40086 ft 452 kts 218°
2026-04-07 18:41 49.26449 -120.48069 40087 ft 452 kts 218°
2026-04-07 18:42 49.21070 -120.53030 40084 ft 452 kts 218°
2026-04-07 18:42 49.15678 -120.57967 40080 ft 452 kts 218°
2026-04-07 18:43 49.10280 -120.62883 40089 ft 451 kts 218°
2026-04-07 18:43 49.04898 -120.67764 40103 ft 450 kts 218°
2026-04-07 18:44 48.99535 -120.72618 39860 ft 446 kts 218°
2026-04-07 18:44 48.96877 -120.75014 39214 ft 442 kts 218°
2026-04-07 18:44 48.94255 -120.77398 38176 ft 437 kts 219°
2026-04-07 18:45 48.91638 -120.79772 36976 ft 438 kts 220°
2026-04-07 18:45 48.89033 -120.82112 36490 ft 433 kts 220°
2026-04-07 18:45 48.86438 -120.84439 35990 ft 433 kts 220°
2026-04-07 18:45 48.83838 -120.86772 35397 ft 436 kts 221°
2026-04-07 18:46 48.81216 -120.89128 34754 ft 439 kts 221°
2026-04-07 18:46 48.78576 -120.91497 34095 ft 443 kts 222°
2026-04-07 18:46 48.75915 -120.93873 33361 ft 446 kts 222°
2026-04-07 18:46 48.73231 -120.96274 32625 ft 448 kts 222°
2026-04-07 18:47 48.70579 -120.98657 31963 ft 449 kts 222°
2026-04-07 18:47 48.67894 -121.01055 31465 ft 446 kts 221°
2026-04-07 18:47 48.65230 -121.03414 30978 ft 441 kts 221°
2026-04-07 18:47 48.62588 -121.05745 30522 ft 438 kts 221°
2026-04-07 18:48 48.59964 -121.08073 29986 ft 437 kts 221°
2026-04-07 18:48 48.57349 -121.10385 29446 ft 433 kts 221°
2026-04-07 18:48 48.54758 -121.12676 28959 ft 430 kts 221°
2026-04-07 18:48 48.52185 -121.14955 28438 ft 428 kts 221°
2026-04-07 18:49 48.49625 -121.17215 27930 ft 424 kts 221°
2026-04-07 18:49 48.47094 -121.19439 27439 ft 419 kts 221°
2026-04-07 18:49 48.44583 -121.21650 26935 ft 415 kts 221°
2026-04-07 18:49 48.42106 -121.23836 26406 ft 407 kts 221°
2026-04-07 18:50 48.39680 -121.25921 25981 ft 399 kts 221°
2026-04-07 18:50 48.37336 -121.27967 25502 ft 396 kts 221°
2026-04-07 18:50 48.34947 -121.30079 25023 ft 394 kts 221°
2026-04-07 18:50 48.32582 -121.32173 24516 ft 392 kts 221°
2026-04-07 18:51 48.30232 -121.34251 24034 ft 392 kts 221°
2026-04-07 18:51 48.27889 -121.36330 23532 ft 390 kts 221°
2026-04-07 18:51 48.25552 -121.38386 23045 ft 387 kts 221°
2026-04-07 18:51 48.23236 -121.40412 22543 ft 384 kts 221°
2026-04-07 18:52 48.20932 -121.42396 22097 ft 381 kts 220°
2026-04-07 18:52 48.18642 -121.44369 21596 ft 377 kts 220°
2026-04-07 18:52 48.16390 -121.46331 21165 ft 373 kts 220°
2026-04-07 18:52 48.14155 -121.48293 20708 ft 372 kts 220°
2026-04-07 18:53 48.11931 -121.50236 20263 ft 371 kts 220°
2026-04-07 18:53 48.09691 -121.52181 19803 ft 371 kts 219°
2026-04-07 18:53 48.07453 -121.54124 19351 ft 371 kts 219°
2026-04-07 18:53 48.05224 -121.56051 18893 ft 369 kts 219°
2026-04-07 18:54 48.03016 -121.57962 18391 ft 364 kts 219°
2026-04-07 18:54 48.00838 -121.59816 17952 ft 359 kts 219°
2026-04-07 18:54 47.98677 -121.61674 17504 ft 357 kts 219°
2026-04-07 18:54 47.96542 -121.63536 17063 ft 355 kts 219°
2026-04-07 18:55 47.94405 -121.65401 16524 ft 356 kts 219°
2026-04-07 18:55 47.92321 -121.67394 15945 ft 352 kts 226°
2026-04-07 18:55 47.90624 -121.69913 15480 ft 339 kts 240°
2026-04-07 18:55 47.89512 -121.72911 15037 ft 324 kts 256°
2026-04-07 18:56 47.89104 -121.75801 14661 ft 314 kts 271°
2026-04-07 18:56 47.89154 -121.78947 14264 ft 308 kts 277°
2026-04-07 18:56 47.89341 -121.82164 13838 ft 306 kts 278°
2026-04-07 18:56 47.89534 -121.85316 13408 ft 305 kts 278°
2026-04-07 18:57 47.89725 -121.88456 13001 ft 304 kts 278°
2026-04-07 18:57 47.89910 -121.91542 12608 ft 303 kts 277°
2026-04-07 18:57 47.90094 -121.94657 12223 ft 302 kts 277°
2026-04-07 18:57 47.90276 -121.97768 11823 ft 302 kts 277°
2026-04-07 18:58 47.90458 -122.00886 11413 ft 302 kts 277°
2026-04-07 18:58 47.90638 -122.04003 11001 ft 302 kts 277°
2026-04-07 18:58 47.90814 -122.07075 10846 ft 292 kts 277°
2026-04-07 18:58 47.90983 -122.10038 10724 ft 282 kts 277°
2026-04-07 18:59 47.91145 -122.12903 10581 ft 273 kts 277°
2026-04-07 18:59 47.91302 -122.15679 10468 ft 265 kts 277°
2026-04-07 18:59 47.91456 -122.18389 10247 ft 263 kts 277°
2026-04-07 18:59 47.91607 -122.21113 9951 ft 265 kts 276°
2026-04-07 19:00 47.91511 -122.23859 9613 ft 268 kts 261°
2026-04-07 19:00 47.90763 -122.26420 9293 ft 276 kts 238°
2026-04-07 19:00 47.89330 -122.28356 8942 ft 285 kts 214°
2026-04-07 19:00 47.87448 -122.29373 8613 ft 290 kts 198°
2026-04-07 19:01 47.85479 -122.30013 8329 ft 289 kts 195°
2026-04-07 19:01 47.83525 -122.30613 7924 ft 285 kts 197°
2026-04-07 19:01 47.79616 -122.31537 7090 ft 287 kts 184°
2026-04-07 19:02 47.77616 -122.31529 6732 ft 287 kts 182°
2026-04-07 19:02 47.75621 -122.31524 6331 ft 287 kts 182°
2026-04-07 19:02 47.73626 -122.31558 5951 ft 286 kts 182°
2026-04-07 19:02 47.71670 -122.31582 5556 ft 274 kts 181°
2026-04-07 19:03 47.69814 -122.31595 5187 ft 260 kts 181°
2026-04-07 19:03 47.68044 -122.31612 4838 ft 250 kts 180°
2026-04-07 19:03 47.66317 -122.31627 4500 ft 249 kts 180°
2026-04-07 19:03 47.64600 -122.31639 4148 ft 243 kts 180°
2026-04-07 19:04 47.62951 -122.31653 3812 ft 231 kts 180°
2026-04-07 19:04 47.61375 -122.31667 3520 ft 222 kts 179°
2026-04-07 19:04 47.59863 -122.31679 3204 ft 213 kts 179°
2026-04-07 19:04 47.58415 -122.31691 2940 ft 202 kts 180°
2026-04-07 19:05 47.57050 -122.31703 2659 ft 191 kts 179°
2026-04-07 19:05 47.55752 -122.31713 2385 ft 182 kts 180°
2026-04-07 19:05 47.54510 -122.31716 2113 ft 173 kts 180°
2026-04-07 19:05 47.53366 -122.31689 1865 ft 156 kts 180°
2026-04-07 19:06 47.52354 -122.31682 1720 ft 137 kts 184°
2026-04-07 19:06 47.51440 -122.31722 1503 ft 127 kts 184°
2026-04-07 19:06 47.50569 -122.31761 1346 ft 126 kts 182°
2026-04-07 19:06 47.49694 -122.31756 1196 ft 129 kts 181°
2026-04-07 19:07 47.48796 -122.31770 961 ft 128 kts 180°
2026-04-07 19:07 47.47902 -122.31780 803 ft 131 kts 180°
2026-04-07 19:07 47.46995 -122.31779 581 ft 129 kts 179°
2026-04-07 19:07 47.46116 -122.31789 418 ft 122 kts 180°
2026-04-07 19:08 47.45442 -122.31796 406 ft 71 kts 180°
2026-04-07 19:08 47.45093 -122.31799 396 ft 42 kts 180°
2026-04-07 19:08 47.44807 -122.31801 393 ft 41 kts 180°
2026-04-07 19:08 47.44523 -122.31802 384 ft 41 kts 180°
2026-04-07 19:09 47.44246 -122.31706 376 ft 42 kts 155°
2026-04-07 19:09 47.44031 -122.31521 375 ft 9 kts 149°
2026-04-07 19:09 47.44023 -122.31514 374 ft 2 kts 149°
2026-04-07 19:09 47.43998 -122.31492 372 ft 6 kts 149°
2026-04-07 19:10 47.43952 -122.31450 375 ft 9 kts 148°
2026-04-07 19:10 47.43888 -122.31393 376 ft 12 kts 148°
2026-04-07 19:10 47.43821 -122.31316 375 ft 13 kts 121°
2026-04-07 19:10 47.43810 -122.31181 375 ft 15 kts 90°
2026-04-07 19:11 47.43809 -122.31016 376 ft 17 kts 91°
2026-04-07 19:11 47.43807 -122.30844 380 ft 16 kts 91°
2026-04-07 19:11 47.43805 -122.30685 381 ft 14 kts 90°
2026-04-07 19:11 47.43805 -122.30629 382 ft 0 kts 90°
2026-04-07 19:12 47.43805 -122.30622 383 ft 4 kts 90°
2026-04-07 19:12 47.43831 -122.30545 386 ft 12 kts 59°
2026-04-07 19:12 47.43852 -122.30446 388 ft 8 kts 80°
2026-04-07 19:13 47.43856 -122.30419 389 ft 0 kts 80°